<?xml version="1.0" encoding="UTF-8" standalone="no" ?>
<gpx xmlns="http://www.topografix.com/GPX/1/1" xmlns:xsi="http://www.w3.org/2001/XMLSchema-instance" xsi:schemaLocation="http://www.topografix.com/GPX/1/1 http://www.topografix.com/GPX/1/1/gpx.xsd" version="1.1" creator="VisuGPX - https://www.visugpx.com">
  <metadata>
    <name>Getigne_Autour10-22km</name>
    <desc><![CDATA[gnerando idor: 7899428_7903072_7903246_9380870]]></desc>
  </metadata>
  <trk>
    <name><![CDATA[Getigne_SevreEtMoine_10km-7903246]]></name>
    <extensions>
      <line xmlns="http://www.topografix.com/GPX/gpx_style/0/2">
        <color>0000FF</color>
        <width>4</width>
      </line>
    </extensions>
    <trkseg>
      <trkpt lat="47.08526" lon="-1.26254">
        <ele>37</ele>
        <time>2023-11-01T19:03:11Z</time>
      </trkpt>
      <trkpt lat="47.08479" lon="-1.26237">
        <ele>36</ele>
        <time>2023-11-01T19:04:16Z</time>
      </trkpt>
      <trkpt lat="47.08459" lon="-1.26173">
        <ele>36</ele>
        <time>2023-11-01T19:05:20Z</time>
      </trkpt>
      <trkpt lat="47.08434" lon="-1.26082">
        <ele>39</ele>
        <time>2023-11-01T19:06:49Z</time>
      </trkpt>
      <trkpt lat="47.08391" lon="-1.25975">
        <ele>42</ele>
        <time>2023-11-01T19:08:42Z</time>
      </trkpt>
      <trkpt lat="47.0837" lon="-1.25917">
        <ele>43</ele>
        <time>2023-11-01T19:09:41Z</time>
      </trkpt>
      <trkpt lat="47.08351" lon="-1.25855">
        <ele>43</ele>
        <time>2023-11-01T19:10:43Z</time>
      </trkpt>
      <trkpt lat="47.08359" lon="-1.25849">
        <ele>43</ele>
        <time>2023-11-01T19:10:55Z</time>
      </trkpt>
      <trkpt lat="47.08397" lon="-1.25786">
        <ele>43</ele>
        <time>2023-11-01T19:12:12Z</time>
      </trkpt>
      <trkpt lat="47.084" lon="-1.25746">
        <ele>44</ele>
        <time>2023-11-01T19:12:48Z</time>
      </trkpt>
      <trkpt lat="47.08448" lon="-1.25702">
        <ele>44</ele>
        <time>2023-11-01T19:14:04Z</time>
      </trkpt>
      <trkpt lat="47.08498" lon="-1.25778">
        <ele>44</ele>
        <time>2023-11-01T19:15:40Z</time>
      </trkpt>
      <trkpt lat="47.08528" lon="-1.25773">
        <ele>44</ele>
        <time>2023-11-01T19:16:20Z</time>
      </trkpt>
      <trkpt lat="47.08555" lon="-1.2569">
        <ele>44</ele>
        <time>2023-11-01T19:17:44Z</time>
      </trkpt>
      <trkpt lat="47.08584" lon="-1.25542">
        <ele>45</ele>
        <time>2023-11-01T19:20:03Z</time>
      </trkpt>
      <trkpt lat="47.08619" lon="-1.25337">
        <ele>47</ele>
        <time>2023-11-01T19:23:16Z</time>
      </trkpt>
      <trkpt lat="47.08625" lon="-1.25246">
        <ele>46</ele>
        <time>2023-11-01T19:24:39Z</time>
      </trkpt>
      <trkpt lat="47.08627" lon="-1.25142">
        <ele>46</ele>
        <time>2023-11-01T19:26:13Z</time>
      </trkpt>
      <trkpt lat="47.08629" lon="-1.25021">
        <ele>47</ele>
        <time>2023-11-01T19:28:03Z</time>
      </trkpt>
      <trkpt lat="47.0864" lon="-1.24865">
        <ele>47</ele>
        <time>2023-11-01T19:30:26Z</time>
      </trkpt>
      <trkpt lat="47.0865" lon="-1.24716">
        <ele>47</ele>
        <time>2023-11-01T19:32:42Z</time>
      </trkpt>
      <trkpt lat="47.08674" lon="-1.24594">
        <ele>49</ele>
        <time>2023-11-01T19:34:37Z</time>
      </trkpt>
      <trkpt lat="47.0869" lon="-1.24507">
        <ele>50</ele>
        <time>2023-11-01T19:35:59Z</time>
      </trkpt>
      <trkpt lat="47.08624" lon="-1.24395">
        <ele>50</ele>
        <time>2023-11-01T19:38:14Z</time>
      </trkpt>
      <trkpt lat="47.08631" lon="-1.24326">
        <ele>49</ele>
        <time>2023-11-01T19:39:17Z</time>
      </trkpt>
      <trkpt lat="47.08747" lon="-1.24285">
        <ele>50</ele>
        <time>2023-11-01T19:41:56Z</time>
      </trkpt>
      <trkpt lat="47.08769" lon="-1.24203">
        <ele>50</ele>
        <time>2023-11-01T19:43:16Z</time>
      </trkpt>
      <trkpt lat="47.08786" lon="-1.24065">
        <ele>52</ele>
        <time>2023-11-01T19:45:24Z</time>
      </trkpt>
      <trkpt lat="47.08806" lon="-1.23907">
        <ele>54</ele>
        <time>2023-11-01T19:47:50Z</time>
      </trkpt>
      <trkpt lat="47.08825" lon="-1.23816">
        <ele>55</ele>
        <time>2023-11-01T19:49:16Z</time>
      </trkpt>
      <trkpt lat="47.08853" lon="-1.23821">
        <ele>55</ele>
        <time>2023-11-01T19:49:54Z</time>
      </trkpt>
      <trkpt lat="47.08904" lon="-1.23866">
        <ele>52</ele>
        <time>2023-11-01T19:51:13Z</time>
      </trkpt>
      <trkpt lat="47.08971" lon="-1.23921">
        <ele>51</ele>
        <time>2023-11-01T19:52:56Z</time>
      </trkpt>
      <trkpt lat="47.09005" lon="-1.23929">
        <ele>51</ele>
        <time>2023-11-01T19:53:42Z</time>
      </trkpt>
      <trkpt lat="47.09042" lon="-1.23882">
        <ele>53</ele>
        <time>2023-11-01T19:54:47Z</time>
      </trkpt>
      <trkpt lat="47.09093" lon="-1.23816">
        <ele>54</ele>
        <time>2023-11-01T19:56:18Z</time>
      </trkpt>
      <trkpt lat="47.09142" lon="-1.23799">
        <ele>55</ele>
        <time>2023-11-01T19:57:25Z</time>
      </trkpt>
      <trkpt lat="47.09203" lon="-1.23807">
        <ele>54</ele>
        <time>2023-11-01T19:58:46Z</time>
      </trkpt>
      <trkpt lat="47.09283" lon="-1.23809">
        <ele>52</ele>
        <time>2023-11-01T20:00:33Z</time>
      </trkpt>
      <trkpt lat="47.0935" lon="-1.23796">
        <ele>50</ele>
        <time>2023-11-01T20:02:03Z</time>
      </trkpt>
      <trkpt lat="47.09401" lon="-1.23794">
        <ele>49</ele>
        <time>2023-11-01T20:03:11Z</time>
      </trkpt>
      <trkpt lat="47.09381" lon="-1.23869">
        <ele>48</ele>
        <time>2023-11-01T20:04:25Z</time>
      </trkpt>
      <trkpt lat="47.09359" lon="-1.23942">
        <ele>46</ele>
        <time>2023-11-01T20:05:37Z</time>
      </trkpt>
      <trkpt lat="47.09351" lon="-1.24">
        <ele>44</ele>
        <time>2023-11-01T20:06:31Z</time>
      </trkpt>
      <trkpt lat="47.09359" lon="-1.24089">
        <ele>42</ele>
        <time>2023-11-01T20:07:53Z</time>
      </trkpt>
      <trkpt lat="47.09354" lon="-1.24188">
        <ele>42</ele>
        <time>2023-11-01T20:09:23Z</time>
      </trkpt>
      <trkpt lat="47.09338" lon="-1.24241">
        <ele>44</ele>
        <time>2023-11-01T20:10:15Z</time>
      </trkpt>
      <trkpt lat="47.09325" lon="-1.24306">
        <ele>43</ele>
        <time>2023-11-01T20:11:17Z</time>
      </trkpt>
      <trkpt lat="47.09324" lon="-1.244">
        <ele>41</ele>
        <time>2023-11-01T20:12:42Z</time>
      </trkpt>
      <trkpt lat="47.09327" lon="-1.24525">
        <ele>40</ele>
        <time>2023-11-01T20:14:36Z</time>
      </trkpt>
      <trkpt lat="47.09317" lon="-1.24598">
        <ele>40</ele>
        <time>2023-11-01T20:15:44Z</time>
      </trkpt>
      <trkpt lat="47.09305" lon="-1.24645">
        <ele>40</ele>
        <time>2023-11-01T20:16:29Z</time>
      </trkpt>
      <trkpt lat="47.09343" lon="-1.24678">
        <ele>39</ele>
        <time>2023-11-01T20:17:28Z</time>
      </trkpt>
      <trkpt lat="47.09394" lon="-1.24717">
        <ele>37</ele>
        <time>2023-11-01T20:18:45Z</time>
      </trkpt>
      <trkpt lat="47.09429" lon="-1.24736">
        <ele>35</ele>
        <time>2023-11-01T20:19:35Z</time>
      </trkpt>
      <trkpt lat="47.0947" lon="-1.24749">
        <ele>33</ele>
        <time>2023-11-01T20:20:31Z</time>
      </trkpt>
      <trkpt lat="47.09468" lon="-1.2477">
        <ele>33</ele>
        <time>2023-11-01T20:20:50Z</time>
      </trkpt>
      <trkpt lat="47.09453" lon="-1.24816">
        <ele>33</ele>
        <time>2023-11-01T20:21:36Z</time>
      </trkpt>
      <trkpt lat="47.09437" lon="-1.24872">
        <ele>33</ele>
        <time>2023-11-01T20:22:31Z</time>
      </trkpt>
      <trkpt lat="47.09418" lon="-1.24928">
        <ele>34</ele>
        <time>2023-11-01T20:23:28Z</time>
      </trkpt>
      <trkpt lat="47.09408" lon="-1.24975">
        <ele>34</ele>
        <time>2023-11-01T20:24:13Z</time>
      </trkpt>
      <trkpt lat="47.09394" lon="-1.25035">
        <ele>35</ele>
        <time>2023-11-01T20:25:11Z</time>
      </trkpt>
      <trkpt lat="47.09378" lon="-1.25108">
        <ele>37</ele>
        <time>2023-11-01T20:26:20Z</time>
      </trkpt>
      <trkpt lat="47.09371" lon="-1.2517">
        <ele>37</ele>
        <time>2023-11-01T20:27:17Z</time>
      </trkpt>
      <trkpt lat="47.0937" lon="-1.25229">
        <ele>36</ele>
        <time>2023-11-01T20:28:11Z</time>
      </trkpt>
      <trkpt lat="47.09371" lon="-1.25294">
        <ele>34</ele>
        <time>2023-11-01T20:29:10Z</time>
      </trkpt>
      <trkpt lat="47.09372" lon="-1.25314">
        <ele>34</ele>
        <time>2023-11-01T20:29:28Z</time>
      </trkpt>
      <trkpt lat="47.09362" lon="-1.2536">
        <ele>33</ele>
        <time>2023-11-01T20:30:12Z</time>
      </trkpt>
      <trkpt lat="47.09347" lon="-1.25406">
        <ele>33</ele>
        <time>2023-11-01T20:30:58Z</time>
      </trkpt>
      <trkpt lat="47.09337" lon="-1.25471">
        <ele>30</ele>
        <time>2023-11-01T20:31:59Z</time>
      </trkpt>
      <trkpt lat="47.09318" lon="-1.25531">
        <ele>29</ele>
        <time>2023-11-01T20:32:59Z</time>
      </trkpt>
      <trkpt lat="47.09284" lon="-1.25561">
        <ele>28</ele>
        <time>2023-11-01T20:33:52Z</time>
      </trkpt>
      <trkpt lat="47.09248" lon="-1.256">
        <ele>27</ele>
        <time>2023-11-01T20:34:52Z</time>
      </trkpt>
      <trkpt lat="47.09203" lon="-1.25643">
        <ele>26</ele>
        <time>2023-11-01T20:36:03Z</time>
      </trkpt>
      <trkpt lat="47.09152" lon="-1.25718">
        <ele>26</ele>
        <time>2023-11-01T20:37:40Z</time>
      </trkpt>
      <trkpt lat="47.09133" lon="-1.25752">
        <ele>26</ele>
        <time>2023-11-01T20:38:20Z</time>
      </trkpt>
      <trkpt lat="47.09099" lon="-1.25832">
        <ele>26</ele>
        <time>2023-11-01T20:39:45Z</time>
      </trkpt>
      <trkpt lat="47.09072" lon="-1.2588">
        <ele>29</ele>
        <time>2023-11-01T20:40:42Z</time>
      </trkpt>
      <trkpt lat="47.09061" lon="-1.25952">
        <ele>28</ele>
        <time>2023-11-01T20:41:49Z</time>
      </trkpt>
      <trkpt lat="47.09025" lon="-1.26046">
        <ele>29</ele>
        <time>2023-11-01T20:43:27Z</time>
      </trkpt>
      <trkpt lat="47.08985" lon="-1.26149">
        <ele>32</ele>
        <time>2023-11-01T20:45:15Z</time>
      </trkpt>
      <trkpt lat="47.08976" lon="-1.26179">
        <ele>33</ele>
        <time>2023-11-01T20:45:44Z</time>
      </trkpt>
      <trkpt lat="47.08969" lon="-1.26234">
        <ele>33</ele>
        <time>2023-11-01T20:46:35Z</time>
      </trkpt>
      <trkpt lat="47.0895" lon="-1.26309">
        <ele>34</ele>
        <time>2023-11-01T20:47:48Z</time>
      </trkpt>
      <trkpt lat="47.08925" lon="-1.26382">
        <ele>36</ele>
        <time>2023-11-01T20:49:02Z</time>
      </trkpt>
      <trkpt lat="47.08892" lon="-1.2647">
        <ele>36</ele>
        <time>2023-11-01T20:50:34Z</time>
      </trkpt>
      <trkpt lat="47.08861" lon="-1.26521">
        <ele>37</ele>
        <time>2023-11-01T20:51:36Z</time>
      </trkpt>
      <trkpt lat="47.08816" lon="-1.2658">
        <ele>37</ele>
        <time>2023-11-01T20:52:56Z</time>
      </trkpt>
      <trkpt lat="47.08765" lon="-1.26649">
        <ele>37</ele>
        <time>2023-11-01T20:54:29Z</time>
      </trkpt>
      <trkpt lat="47.08721" lon="-1.26726">
        <ele>36</ele>
        <time>2023-11-01T20:56:00Z</time>
      </trkpt>
      <trkpt lat="47.08677" lon="-1.26815">
        <ele>36</ele>
        <time>2023-11-01T20:57:40Z</time>
      </trkpt>
      <trkpt lat="47.08642" lon="-1.26884">
        <ele>34</ele>
        <time>2023-11-01T20:58:58Z</time>
      </trkpt>
      <trkpt lat="47.08638" lon="-1.26989">
        <ele>31</ele>
        <time>2023-11-01T21:00:34Z</time>
      </trkpt>
      <trkpt lat="47.08623" lon="-1.27081">
        <ele>30</ele>
        <time>2023-11-01T21:02:00Z</time>
      </trkpt>
      <trkpt lat="47.08613" lon="-1.2715">
        <ele>32</ele>
        <time>2023-11-01T21:03:04Z</time>
      </trkpt>
      <trkpt lat="47.08608" lon="-1.27163">
        <ele>33</ele>
        <time>2023-11-01T21:03:17Z</time>
      </trkpt>
      <trkpt lat="47.086" lon="-1.27154">
        <ele>33</ele>
        <time>2023-11-01T21:03:31Z</time>
      </trkpt>
      <trkpt lat="47.08595" lon="-1.27163">
        <ele>33</ele>
        <time>2023-11-01T21:03:41Z</time>
      </trkpt>
      <trkpt lat="47.08589" lon="-1.27183">
        <ele>34</ele>
        <time>2023-11-01T21:04:01Z</time>
      </trkpt>
      <trkpt lat="47.0857" lon="-1.27172">
        <ele>33</ele>
        <time>2023-11-01T21:04:28Z</time>
      </trkpt>
      <trkpt lat="47.08551" lon="-1.27155">
        <ele>30</ele>
        <time>2023-11-01T21:04:58Z</time>
      </trkpt>
      <trkpt lat="47.0853" lon="-1.27133">
        <ele>26</ele>
        <time>2023-11-01T21:05:33Z</time>
      </trkpt>
      <trkpt lat="47.08534" lon="-1.27106">
        <ele>24</ele>
        <time>2023-11-01T21:05:58Z</time>
      </trkpt>
      <trkpt lat="47.08513" lon="-1.27097">
        <ele>21</ele>
        <time>2023-11-01T21:06:27Z</time>
      </trkpt>
      <trkpt lat="47.08457" lon="-1.27137">
        <ele>21</ele>
        <time>2023-11-01T21:07:50Z</time>
      </trkpt>
      <trkpt lat="47.08421" lon="-1.2718">
        <ele>21</ele>
        <time>2023-11-01T21:08:52Z</time>
      </trkpt>
      <trkpt lat="47.08388" lon="-1.27236">
        <ele>22</ele>
        <time>2023-11-01T21:09:59Z</time>
      </trkpt>
      <trkpt lat="47.08395" lon="-1.27296">
        <ele>25</ele>
        <time>2023-11-01T21:10:54Z</time>
      </trkpt>
      <trkpt lat="47.08385" lon="-1.27407">
        <ele>24</ele>
        <time>2023-11-01T21:12:36Z</time>
      </trkpt>
      <trkpt lat="47.08361" lon="-1.27457">
        <ele>20</ele>
        <time>2023-11-01T21:13:32Z</time>
      </trkpt>
      <trkpt lat="47.0835" lon="-1.275">
        <ele>19</ele>
        <time>2023-11-01T21:14:14Z</time>
      </trkpt>
      <trkpt lat="47.08351" lon="-1.27533">
        <ele>19</ele>
        <time>2023-11-01T21:14:44Z</time>
      </trkpt>
      <trkpt lat="47.08389" lon="-1.27566">
        <ele>20</ele>
        <time>2023-11-01T21:15:42Z</time>
      </trkpt>
      <trkpt lat="47.08437" lon="-1.27618">
        <ele>22</ele>
        <time>2023-11-01T21:17:02Z</time>
      </trkpt>
      <trkpt lat="47.08494" lon="-1.27669">
        <ele>22</ele>
        <time>2023-11-01T21:18:31Z</time>
      </trkpt>
      <trkpt lat="47.0856" lon="-1.27698">
        <ele>23</ele>
        <time>2023-11-01T21:20:03Z</time>
      </trkpt>
      <trkpt lat="47.08607" lon="-1.27698">
        <ele>22</ele>
        <time>2023-11-01T21:21:06Z</time>
      </trkpt>
      <trkpt lat="47.08643" lon="-1.2771">
        <ele>20</ele>
        <time>2023-11-01T21:21:55Z</time>
      </trkpt>
      <trkpt lat="47.08654" lon="-1.27773">
        <ele>17</ele>
        <time>2023-11-01T21:22:54Z</time>
      </trkpt>
      <trkpt lat="47.08696" lon="-1.27846">
        <ele>16</ele>
        <time>2023-11-01T21:24:21Z</time>
      </trkpt>
      <trkpt lat="47.08727" lon="-1.27885">
        <ele>16</ele>
        <time>2023-11-01T21:25:15Z</time>
      </trkpt>
      <trkpt lat="47.08711" lon="-1.27945">
        <ele>16</ele>
        <time>2023-11-01T21:26:14Z</time>
      </trkpt>
      <trkpt lat="47.08687" lon="-1.28022">
        <ele>21</ele>
        <time>2023-11-01T21:27:31Z</time>
      </trkpt>
      <trkpt lat="47.08636" lon="-1.27981">
        <ele>21</ele>
        <time>2023-11-01T21:28:49Z</time>
      </trkpt>
      <trkpt lat="47.08591" lon="-1.27956">
        <ele>23</ele>
        <time>2023-11-01T21:29:53Z</time>
      </trkpt>
      <trkpt lat="47.08561" lon="-1.27943">
        <ele>26</ele>
        <time>2023-11-01T21:30:34Z</time>
      </trkpt>
      <trkpt lat="47.0854" lon="-1.27942">
        <ele>28</ele>
        <time>2023-11-01T21:31:03Z</time>
      </trkpt>
      <trkpt lat="47.08534" lon="-1.27951">
        <ele>28</ele>
        <time>2023-11-01T21:31:14Z</time>
      </trkpt>
      <trkpt lat="47.08526" lon="-1.27958">
        <ele>29</ele>
        <time>2023-11-01T21:31:26Z</time>
      </trkpt>
      <trkpt lat="47.08504" lon="-1.27999">
        <ele>30</ele>
        <time>2023-11-01T21:32:14Z</time>
      </trkpt>
      <trkpt lat="47.08481" lon="-1.28028">
        <ele>32</ele>
        <time>2023-11-01T21:32:54Z</time>
      </trkpt>
      <trkpt lat="47.08362" lon="-1.27918">
        <ele>38</ele>
        <time>2023-11-01T21:36:02Z</time>
      </trkpt>
      <trkpt lat="47.08233" lon="-1.2782">
        <ele>36</ele>
        <time>2023-11-01T21:39:16Z</time>
      </trkpt>
      <trkpt lat="47.08079" lon="-1.27662">
        <ele>37</ele>
        <time>2023-11-01T21:43:26Z</time>
      </trkpt>
      <trkpt lat="47.08105" lon="-1.27507">
        <ele>28</ele>
        <time>2023-11-01T21:45:52Z</time>
      </trkpt>
      <trkpt lat="47.08063" lon="-1.27414">
        <ele>26</ele>
        <time>2023-11-01T21:47:33Z</time>
      </trkpt>
      <trkpt lat="47.08134" lon="-1.27421">
        <ele>26</ele>
        <time>2023-11-01T21:49:08Z</time>
      </trkpt>
      <trkpt lat="47.08228" lon="-1.27487">
        <ele>20</ele>
        <time>2023-11-01T21:51:27Z</time>
      </trkpt>
      <trkpt lat="47.08286" lon="-1.27444">
        <ele>18</ele>
        <time>2023-11-01T21:52:54Z</time>
      </trkpt>
      <trkpt lat="47.08277" lon="-1.27399">
        <ele>20</ele>
        <time>2023-11-01T21:53:36Z</time>
      </trkpt>
      <trkpt lat="47.08288" lon="-1.27354">
        <ele>21</ele>
        <time>2023-11-01T21:54:20Z</time>
      </trkpt>
      <trkpt lat="47.08281" lon="-1.27287">
        <ele>24</ele>
        <time>2023-11-01T21:55:21Z</time>
      </trkpt>
      <trkpt lat="47.08284" lon="-1.27242">
        <ele>25</ele>
        <time>2023-11-01T21:56:02Z</time>
      </trkpt>
      <trkpt lat="47.08323" lon="-1.27113">
        <ele>24</ele>
        <time>2023-11-01T21:58:11Z</time>
      </trkpt>
      <trkpt lat="47.08348" lon="-1.2709">
        <ele>23</ele>
        <time>2023-11-01T21:58:50Z</time>
      </trkpt>
      <trkpt lat="47.08379" lon="-1.27056">
        <ele>22</ele>
        <time>2023-11-01T21:59:42Z</time>
      </trkpt>
      <trkpt lat="47.08397" lon="-1.27004">
        <ele>22</ele>
        <time>2023-11-01T22:00:35Z</time>
      </trkpt>
      <trkpt lat="47.08433" lon="-1.26931">
        <ele>21</ele>
        <time>2023-11-01T22:01:57Z</time>
      </trkpt>
      <trkpt lat="47.08452" lon="-1.26905">
        <ele>21</ele>
        <time>2023-11-01T22:02:31Z</time>
      </trkpt>
      <trkpt lat="47.08446" lon="-1.26871">
        <ele>23</ele>
        <time>2023-11-01T22:03:03Z</time>
      </trkpt>
      <trkpt lat="47.08422" lon="-1.26812">
        <ele>24</ele>
        <time>2023-11-01T22:04:06Z</time>
      </trkpt>
      <trkpt lat="47.08371" lon="-1.26739">
        <ele>27</ele>
        <time>2023-11-01T22:05:41Z</time>
      </trkpt>
      <trkpt lat="47.08334" lon="-1.26681">
        <ele>24</ele>
        <time>2023-11-01T22:06:53Z</time>
      </trkpt>
      <trkpt lat="47.08294" lon="-1.26617">
        <ele>24</ele>
        <time>2023-11-01T22:08:12Z</time>
      </trkpt>
      <trkpt lat="47.08334" lon="-1.26557">
        <ele>22</ele>
        <time>2023-11-01T22:09:28Z</time>
      </trkpt>
      <trkpt lat="47.08378" lon="-1.26574">
        <ele>23</ele>
        <time>2023-11-01T22:10:29Z</time>
      </trkpt>
      <trkpt lat="47.08432" lon="-1.26617">
        <ele>25</ele>
        <time>2023-11-01T22:11:51Z</time>
      </trkpt>
      <trkpt lat="47.08475" lon="-1.26663">
        <ele>30</ele>
        <time>2023-11-01T22:13:02Z</time>
      </trkpt>
      <trkpt lat="47.08529" lon="-1.26616">
        <ele>35</ele>
        <time>2023-11-01T22:14:25Z</time>
      </trkpt>
      <trkpt lat="47.08576" lon="-1.26576">
        <ele>37</ele>
        <time>2023-11-01T22:15:38Z</time>
      </trkpt>
      <trkpt lat="47.0853" lon="-1.26443">
        <ele>38</ele>
        <time>2023-11-01T22:17:54Z</time>
      </trkpt>
      <trkpt lat="47.08488" lon="-1.26288">
        <ele>37</ele>
        <time>2023-11-01T22:20:25Z</time>
      </trkpt>
      <trkpt lat="47.08498" lon="-1.26262">
        <ele>37</ele>
        <time>2023-11-01T22:20:52Z</time>
      </trkpt>
      <trkpt lat="47.08516" lon="-1.26239">
        <ele>37</ele>
        <time>2023-11-01T22:21:24Z</time>
      </trkpt>
    </trkseg>
  </trk>
  <trk>
    <name><![CDATA[Getigne_SevreEtMoine_12km-7903072]]></name>
    <extensions>
      <line xmlns="http://www.topografix.com/GPX/gpx_style/0/2">
        <color>00FF00</color>
        <width>4</width>
      </line>
    </extensions>
    <trkseg>
      <trkpt lat="47.0854" lon="-1.26216">
        <ele>38</ele>
        <time>2023-11-01T19:02:57Z</time>
      </trkpt>
      <trkpt lat="47.0855" lon="-1.26242">
        <ele>38</ele>
        <time>2023-11-01T19:03:24Z</time>
      </trkpt>
      <trkpt lat="47.08557" lon="-1.26268">
        <ele>38</ele>
        <time>2023-11-01T19:03:50Z</time>
      </trkpt>
      <trkpt lat="47.08576" lon="-1.26299">
        <ele>39</ele>
        <time>2023-11-01T19:04:27Z</time>
      </trkpt>
      <trkpt lat="47.08579" lon="-1.26364">
        <ele>39</ele>
        <time>2023-11-01T19:05:27Z</time>
      </trkpt>
      <trkpt lat="47.08625" lon="-1.26435">
        <ele>39</ele>
        <time>2023-11-01T19:06:56Z</time>
      </trkpt>
      <trkpt lat="47.08596" lon="-1.2653">
        <ele>38</ele>
        <time>2023-11-01T19:08:30Z</time>
      </trkpt>
      <trkpt lat="47.08603" lon="-1.26547">
        <ele>38</ele>
        <time>2023-11-01T19:08:48Z</time>
      </trkpt>
      <trkpt lat="47.08602" lon="-1.26593">
        <ele>37</ele>
        <time>2023-11-01T19:09:30Z</time>
      </trkpt>
      <trkpt lat="47.08606" lon="-1.26619">
        <ele>37</ele>
        <time>2023-11-01T19:09:54Z</time>
      </trkpt>
      <trkpt lat="47.08614" lon="-1.26652">
        <ele>37</ele>
        <time>2023-11-01T19:10:26Z</time>
      </trkpt>
      <trkpt lat="47.0862" lon="-1.26672">
        <ele>37</ele>
        <time>2023-11-01T19:10:46Z</time>
      </trkpt>
      <trkpt lat="47.08626" lon="-1.26707">
        <ele>37</ele>
        <time>2023-11-01T19:11:19Z</time>
      </trkpt>
      <trkpt lat="47.08642" lon="-1.26753">
        <ele>36</ele>
        <time>2023-11-01T19:12:06Z</time>
      </trkpt>
      <trkpt lat="47.08666" lon="-1.26765">
        <ele>37</ele>
        <time>2023-11-01T19:12:40Z</time>
      </trkpt>
      <trkpt lat="47.08689" lon="-1.26786">
        <ele>36</ele>
        <time>2023-11-01T19:13:16Z</time>
      </trkpt>
      <trkpt lat="47.08734" lon="-1.26693">
        <ele>36</ele>
        <time>2023-11-01T19:14:59Z</time>
      </trkpt>
      <trkpt lat="47.08819" lon="-1.26575">
        <ele>37</ele>
        <time>2023-11-01T19:17:36Z</time>
      </trkpt>
      <trkpt lat="47.08872" lon="-1.26487">
        <ele>37</ele>
        <time>2023-11-01T19:19:22Z</time>
      </trkpt>
      <trkpt lat="47.08935" lon="-1.2635">
        <ele>35</ele>
        <time>2023-11-01T19:21:52Z</time>
      </trkpt>
      <trkpt lat="47.08968" lon="-1.26227">
        <ele>33</ele>
        <time>2023-11-01T19:23:53Z</time>
      </trkpt>
      <trkpt lat="47.08988" lon="-1.26138">
        <ele>32</ele>
        <time>2023-11-01T19:25:18Z</time>
      </trkpt>
      <trkpt lat="47.09051" lon="-1.25985">
        <ele>28</ele>
        <time>2023-11-01T19:28:00Z</time>
      </trkpt>
      <trkpt lat="47.09076" lon="-1.25863">
        <ele>29</ele>
        <time>2023-11-01T19:29:56Z</time>
      </trkpt>
      <trkpt lat="47.09149" lon="-1.25717">
        <ele>26</ele>
        <time>2023-11-01T19:32:41Z</time>
      </trkpt>
      <trkpt lat="47.09198" lon="-1.25637">
        <ele>27</ele>
        <time>2023-11-01T19:34:18Z</time>
      </trkpt>
      <trkpt lat="47.09316" lon="-1.25523">
        <ele>29</ele>
        <time>2023-11-01T19:37:27Z</time>
      </trkpt>
      <trkpt lat="47.09364" lon="-1.25326">
        <ele>34</ele>
        <time>2023-11-01T19:40:37Z</time>
      </trkpt>
      <trkpt lat="47.0937" lon="-1.25215">
        <ele>36</ele>
        <time>2023-11-01T19:42:18Z</time>
      </trkpt>
      <trkpt lat="47.09377" lon="-1.25081">
        <ele>36</ele>
        <time>2023-11-01T19:44:20Z</time>
      </trkpt>
      <trkpt lat="47.09465" lon="-1.24749">
        <ele>33</ele>
        <time>2023-11-01T19:49:44Z</time>
      </trkpt>
      <trkpt lat="47.09297" lon="-1.24639">
        <ele>40</ele>
        <time>2023-11-01T19:53:49Z</time>
      </trkpt>
      <trkpt lat="47.09322" lon="-1.24535">
        <ele>40</ele>
        <time>2023-11-01T19:55:29Z</time>
      </trkpt>
      <trkpt lat="47.09322" lon="-1.2439">
        <ele>41</ele>
        <time>2023-11-01T19:57:41Z</time>
      </trkpt>
      <trkpt lat="47.0933" lon="-1.24281">
        <ele>43</ele>
        <time>2023-11-01T19:59:21Z</time>
      </trkpt>
      <trkpt lat="47.09357" lon="-1.2413">
        <ele>42</ele>
        <time>2023-11-01T20:01:43Z</time>
      </trkpt>
      <trkpt lat="47.09347" lon="-1.24014">
        <ele>45</ele>
        <time>2023-11-01T20:03:29Z</time>
      </trkpt>
      <trkpt lat="47.09366" lon="-1.23919">
        <ele>47</ele>
        <time>2023-11-01T20:04:59Z</time>
      </trkpt>
      <trkpt lat="47.09392" lon="-1.23796">
        <ele>49</ele>
        <time>2023-11-01T20:06:56Z</time>
      </trkpt>
      <trkpt lat="47.09426" lon="-1.23612">
        <ele>49</ele>
        <time>2023-11-01T20:09:49Z</time>
      </trkpt>
      <trkpt lat="47.09458" lon="-1.23502">
        <ele>51</ele>
        <time>2023-11-01T20:11:38Z</time>
      </trkpt>
      <trkpt lat="47.09444" lon="-1.23363">
        <ele>54</ele>
        <time>2023-11-01T20:13:45Z</time>
      </trkpt>
      <trkpt lat="47.09382" lon="-1.23127">
        <ele>59</ele>
        <time>2023-11-01T20:17:35Z</time>
      </trkpt>
      <trkpt lat="47.09339" lon="-1.22942">
        <ele>61</ele>
        <time>2023-11-01T20:20:33Z</time>
      </trkpt>
      <trkpt lat="47.09368" lon="-1.22834">
        <ele>62</ele>
        <time>2023-11-01T20:22:18Z</time>
      </trkpt>
      <trkpt lat="47.09385" lon="-1.22751">
        <ele>63</ele>
        <time>2023-11-01T20:23:37Z</time>
      </trkpt>
      <trkpt lat="47.09486" lon="-1.22787">
        <ele>64</ele>
        <time>2023-11-01T20:25:56Z</time>
      </trkpt>
      <trkpt lat="47.09578" lon="-1.22823">
        <ele>63</ele>
        <time>2023-11-01T20:28:03Z</time>
      </trkpt>
      <trkpt lat="47.09624" lon="-1.2283">
        <ele>62</ele>
        <time>2023-11-01T20:29:04Z</time>
      </trkpt>
      <trkpt lat="47.09622" lon="-1.2287">
        <ele>62</ele>
        <time>2023-11-01T20:29:41Z</time>
      </trkpt>
      <trkpt lat="47.09678" lon="-1.22929">
        <ele>59</ele>
        <time>2023-11-01T20:31:13Z</time>
      </trkpt>
      <trkpt lat="47.09763" lon="-1.22948">
        <ele>56</ele>
        <time>2023-11-01T20:33:08Z</time>
      </trkpt>
      <trkpt lat="47.09737" lon="-1.23058">
        <ele>51</ele>
        <time>2023-11-01T20:34:53Z</time>
      </trkpt>
      <trkpt lat="47.09796" lon="-1.23133">
        <ele>40</ele>
        <time>2023-11-01T20:36:37Z</time>
      </trkpt>
      <trkpt lat="47.09821" lon="-1.2326">
        <ele>27</ele>
        <time>2023-11-01T20:38:38Z</time>
      </trkpt>
      <trkpt lat="47.09825" lon="-1.23304">
        <ele>32</ele>
        <time>2023-11-01T20:39:18Z</time>
      </trkpt>
      <trkpt lat="47.09738" lon="-1.23373">
        <ele>32</ele>
        <time>2023-11-01T20:41:30Z</time>
      </trkpt>
      <trkpt lat="47.09665" lon="-1.23441">
        <ele>26</ele>
        <time>2023-11-01T20:43:25Z</time>
      </trkpt>
      <trkpt lat="47.09641" lon="-1.23525">
        <ele>31</ele>
        <time>2023-11-01T20:44:48Z</time>
      </trkpt>
      <trkpt lat="47.09642" lon="-1.23644">
        <ele>31</ele>
        <time>2023-11-01T20:46:36Z</time>
      </trkpt>
      <trkpt lat="47.09653" lon="-1.23767">
        <ele>30</ele>
        <time>2023-11-01T20:48:29Z</time>
      </trkpt>
      <trkpt lat="47.09649" lon="-1.23858">
        <ele>31</ele>
        <time>2023-11-01T20:49:52Z</time>
      </trkpt>
      <trkpt lat="47.09609" lon="-1.23947">
        <ele>33</ele>
        <time>2023-11-01T20:51:29Z</time>
      </trkpt>
      <trkpt lat="47.09536" lon="-1.24003">
        <ele>31</ele>
        <time>2023-11-01T20:53:18Z</time>
      </trkpt>
      <trkpt lat="47.09495" lon="-1.24054">
        <ele>31</ele>
        <time>2023-11-01T20:54:30Z</time>
      </trkpt>
      <trkpt lat="47.09512" lon="-1.24186">
        <ele>35</ele>
        <time>2023-11-01T20:56:32Z</time>
      </trkpt>
      <trkpt lat="47.09535" lon="-1.24216">
        <ele>36</ele>
        <time>2023-11-01T20:57:13Z</time>
      </trkpt>
      <trkpt lat="47.09529" lon="-1.24284">
        <ele>33</ele>
        <time>2023-11-01T20:58:15Z</time>
      </trkpt>
      <trkpt lat="47.09594" lon="-1.24338">
        <ele>39</ele>
        <time>2023-11-01T20:59:55Z</time>
      </trkpt>
      <trkpt lat="47.0966" lon="-1.24398">
        <ele>41</ele>
        <time>2023-11-01T21:01:39Z</time>
      </trkpt>
      <trkpt lat="47.09719" lon="-1.24451">
        <ele>44</ele>
        <time>2023-11-01T21:03:11Z</time>
      </trkpt>
      <trkpt lat="47.09776" lon="-1.24469">
        <ele>46</ele>
        <time>2023-11-01T21:04:29Z</time>
      </trkpt>
      <trkpt lat="47.09847" lon="-1.24499">
        <ele>44</ele>
        <time>2023-11-01T21:06:07Z</time>
      </trkpt>
      <trkpt lat="47.09829" lon="-1.24606">
        <ele>39</ele>
        <time>2023-11-01T21:07:48Z</time>
      </trkpt>
      <trkpt lat="47.0984" lon="-1.24711">
        <ele>33</ele>
        <time>2023-11-01T21:09:24Z</time>
      </trkpt>
      <trkpt lat="47.09856" lon="-1.24798">
        <ele>29</ele>
        <time>2023-11-01T21:10:46Z</time>
      </trkpt>
      <trkpt lat="47.09849" lon="-1.25114">
        <ele>31</ele>
        <time>2023-11-01T21:15:33Z</time>
      </trkpt>
      <trkpt lat="47.09781" lon="-1.25332">
        <ele>33</ele>
        <time>2023-11-01T21:19:11Z</time>
      </trkpt>
      <trkpt lat="47.09678" lon="-1.25268">
        <ele>27</ele>
        <time>2023-11-01T21:21:40Z</time>
      </trkpt>
      <trkpt lat="47.09612" lon="-1.25255">
        <ele>22</ele>
        <time>2023-11-01T21:23:09Z</time>
      </trkpt>
      <trkpt lat="47.09564" lon="-1.253">
        <ele>21</ele>
        <time>2023-11-01T21:24:25Z</time>
      </trkpt>
      <trkpt lat="47.09573" lon="-1.25489">
        <ele>20</ele>
        <time>2023-11-01T21:27:17Z</time>
      </trkpt>
      <trkpt lat="47.09508" lon="-1.25628">
        <ele>20</ele>
        <time>2023-11-01T21:29:50Z</time>
      </trkpt>
      <trkpt lat="47.09499" lon="-1.25752">
        <ele>19</ele>
        <time>2023-11-01T21:31:44Z</time>
      </trkpt>
      <trkpt lat="47.09492" lon="-1.25914">
        <ele>18</ele>
        <time>2023-11-01T21:34:11Z</time>
      </trkpt>
      <trkpt lat="47.09477" lon="-1.25999">
        <ele>22</ele>
        <time>2023-11-01T21:35:31Z</time>
      </trkpt>
      <trkpt lat="47.09459" lon="-1.26074">
        <ele>28</ele>
        <time>2023-11-01T21:36:43Z</time>
      </trkpt>
      <trkpt lat="47.09392" lon="-1.261">
        <ele>29</ele>
        <time>2023-11-01T21:38:16Z</time>
      </trkpt>
      <trkpt lat="47.09338" lon="-1.26077">
        <ele>26</ele>
        <time>2023-11-01T21:39:31Z</time>
      </trkpt>
      <trkpt lat="47.09315" lon="-1.26109">
        <ele>27</ele>
        <time>2023-11-01T21:40:13Z</time>
      </trkpt>
      <trkpt lat="47.09274" lon="-1.26157">
        <ele>28</ele>
        <time>2023-11-01T21:41:23Z</time>
      </trkpt>
      <trkpt lat="47.09274" lon="-1.26209">
        <ele>30</ele>
        <time>2023-11-01T21:42:10Z</time>
      </trkpt>
      <trkpt lat="47.093" lon="-1.26243">
        <ele>32</ele>
        <time>2023-11-01T21:42:57Z</time>
      </trkpt>
      <trkpt lat="47.09222" lon="-1.26378">
        <ele>29</ele>
        <time>2023-11-01T21:45:37Z</time>
      </trkpt>
      <trkpt lat="47.0917" lon="-1.26396">
        <ele>25</ele>
        <time>2023-11-01T21:46:49Z</time>
      </trkpt>
      <trkpt lat="47.09132" lon="-1.26454">
        <ele>23</ele>
        <time>2023-11-01T21:48:02Z</time>
      </trkpt>
      <trkpt lat="47.09085" lon="-1.26572">
        <ele>19</ele>
        <time>2023-11-01T21:50:06Z</time>
      </trkpt>
      <trkpt lat="47.0906" lon="-1.26722">
        <ele>22</ele>
        <time>2023-11-01T21:52:26Z</time>
      </trkpt>
      <trkpt lat="47.08981" lon="-1.26858">
        <ele>22</ele>
        <time>2023-11-01T21:55:09Z</time>
      </trkpt>
      <trkpt lat="47.08942" lon="-1.26943">
        <ele>23</ele>
        <time>2023-11-01T21:56:42Z</time>
      </trkpt>
      <trkpt lat="47.0896" lon="-1.26988">
        <ele>26</ele>
        <time>2023-11-01T21:57:29Z</time>
      </trkpt>
      <trkpt lat="47.08954" lon="-1.27059">
        <ele>26</ele>
        <time>2023-11-01T21:58:34Z</time>
      </trkpt>
      <trkpt lat="47.08963" lon="-1.27117">
        <ele>28</ele>
        <time>2023-11-01T21:59:28Z</time>
      </trkpt>
      <trkpt lat="47.08976" lon="-1.27142">
        <ele>30</ele>
        <time>2023-11-01T21:59:57Z</time>
      </trkpt>
      <trkpt lat="47.0902" lon="-1.27208">
        <ele>32</ele>
        <time>2023-11-01T22:01:21Z</time>
      </trkpt>
      <trkpt lat="47.09003" lon="-1.27336">
        <ele>32</ele>
        <time>2023-11-01T22:03:19Z</time>
      </trkpt>
      <trkpt lat="47.09005" lon="-1.27514">
        <ele>33</ele>
        <time>2023-11-01T22:06:01Z</time>
      </trkpt>
      <trkpt lat="47.0894" lon="-1.27491">
        <ele>30</ele>
        <time>2023-11-01T22:07:30Z</time>
      </trkpt>
      <trkpt lat="47.08904" lon="-1.27552">
        <ele>29</ele>
        <time>2023-11-01T22:08:44Z</time>
      </trkpt>
      <trkpt lat="47.08891" lon="-1.2759">
        <ele>30</ele>
        <time>2023-11-01T22:09:22Z</time>
      </trkpt>
      <trkpt lat="47.08871" lon="-1.27576">
        <ele>28</ele>
        <time>2023-11-01T22:09:52Z</time>
      </trkpt>
      <trkpt lat="47.0886" lon="-1.27614">
        <ele>28</ele>
        <time>2023-11-01T22:10:29Z</time>
      </trkpt>
      <trkpt lat="47.08846" lon="-1.27601">
        <ele>27</ele>
        <time>2023-11-01T22:10:52Z</time>
      </trkpt>
      <trkpt lat="47.08851" lon="-1.27574">
        <ele>26</ele>
        <time>2023-11-01T22:11:17Z</time>
      </trkpt>
      <trkpt lat="47.0884" lon="-1.27563">
        <ele>25</ele>
        <time>2023-11-01T22:11:35Z</time>
      </trkpt>
      <trkpt lat="47.08832" lon="-1.27565">
        <ele>24</ele>
        <time>2023-11-01T22:11:46Z</time>
      </trkpt>
      <trkpt lat="47.08821" lon="-1.27571">
        <ele>25</ele>
        <time>2023-11-01T22:12:01Z</time>
      </trkpt>
      <trkpt lat="47.08806" lon="-1.27581">
        <ele>24</ele>
        <time>2023-11-01T22:12:23Z</time>
      </trkpt>
      <trkpt lat="47.08768" lon="-1.27649">
        <ele>20</ele>
        <time>2023-11-01T22:13:43Z</time>
      </trkpt>
      <trkpt lat="47.0876" lon="-1.27687">
        <ele>18</ele>
        <time>2023-11-01T22:14:19Z</time>
      </trkpt>
      <trkpt lat="47.08747" lon="-1.27689">
        <ele>17</ele>
        <time>2023-11-01T22:14:37Z</time>
      </trkpt>
      <trkpt lat="47.08733" lon="-1.27719">
        <ele>17</ele>
        <time>2023-11-01T22:15:10Z</time>
      </trkpt>
      <trkpt lat="47.08731" lon="-1.27742">
        <ele>17</ele>
        <time>2023-11-01T22:15:31Z</time>
      </trkpt>
      <trkpt lat="47.08724" lon="-1.27758">
        <ele>17</ele>
        <time>2023-11-01T22:15:48Z</time>
      </trkpt>
      <trkpt lat="47.08715" lon="-1.27776">
        <ele>17</ele>
        <time>2023-11-01T22:16:08Z</time>
      </trkpt>
      <trkpt lat="47.08702" lon="-1.27818">
        <ele>17</ele>
        <time>2023-11-01T22:16:50Z</time>
      </trkpt>
      <trkpt lat="47.08706" lon="-1.2784">
        <ele>16</ele>
        <time>2023-11-01T22:17:11Z</time>
      </trkpt>
      <trkpt lat="47.08702" lon="-1.27855">
        <ele>16</ele>
        <time>2023-11-01T22:17:26Z</time>
      </trkpt>
      <trkpt lat="47.08724" lon="-1.27885">
        <ele>16</ele>
        <time>2023-11-01T22:18:06Z</time>
      </trkpt>
      <trkpt lat="47.08714" lon="-1.27934">
        <ele>16</ele>
        <time>2023-11-01T22:18:52Z</time>
      </trkpt>
      <trkpt lat="47.08685" lon="-1.28016">
        <ele>21</ele>
        <time>2023-11-01T22:20:16Z</time>
      </trkpt>
      <trkpt lat="47.08651" lon="-1.27985">
        <ele>20</ele>
        <time>2023-11-01T22:21:10Z</time>
      </trkpt>
      <trkpt lat="47.0859" lon="-1.27964">
        <ele>24</ele>
        <time>2023-11-01T22:22:33Z</time>
      </trkpt>
      <trkpt lat="47.08571" lon="-1.27952">
        <ele>25</ele>
        <time>2023-11-01T22:23:01Z</time>
      </trkpt>
      <trkpt lat="47.08569" lon="-1.27936">
        <ele>25</ele>
        <time>2023-11-01T22:23:16Z</time>
      </trkpt>
      <trkpt lat="47.08554" lon="-1.27929">
        <ele>26</ele>
        <time>2023-11-01T22:23:37Z</time>
      </trkpt>
      <trkpt lat="47.08562" lon="-1.27898">
        <ele>24</ele>
        <time>2023-11-01T22:24:07Z</time>
      </trkpt>
      <trkpt lat="47.08563" lon="-1.27873">
        <ele>23</ele>
        <time>2023-11-01T22:24:29Z</time>
      </trkpt>
      <trkpt lat="47.08544" lon="-1.2784">
        <ele>24</ele>
        <time>2023-11-01T22:25:09Z</time>
      </trkpt>
      <trkpt lat="47.08486" lon="-1.27775">
        <ele>24</ele>
        <time>2023-11-01T22:26:46Z</time>
      </trkpt>
      <trkpt lat="47.08459" lon="-1.27751">
        <ele>24</ele>
        <time>2023-11-01T22:27:28Z</time>
      </trkpt>
      <trkpt lat="47.08434" lon="-1.27719">
        <ele>23</ele>
        <time>2023-11-01T22:28:12Z</time>
      </trkpt>
      <trkpt lat="47.08408" lon="-1.27683">
        <ele>21</ele>
        <time>2023-11-01T22:29:00Z</time>
      </trkpt>
      <trkpt lat="47.08371" lon="-1.2766">
        <ele>22</ele>
        <time>2023-11-01T22:29:54Z</time>
      </trkpt>
      <trkpt lat="47.08337" lon="-1.27637">
        <ele>22</ele>
        <time>2023-11-01T22:30:44Z</time>
      </trkpt>
      <trkpt lat="47.08302" lon="-1.27629">
        <ele>23</ele>
        <time>2023-11-01T22:31:31Z</time>
      </trkpt>
      <trkpt lat="47.08285" lon="-1.27607">
        <ele>22</ele>
        <time>2023-11-01T22:32:01Z</time>
      </trkpt>
      <trkpt lat="47.08256" lon="-1.27577">
        <ele>21</ele>
        <time>2023-11-01T22:32:49Z</time>
      </trkpt>
      <trkpt lat="47.08262" lon="-1.27504">
        <ele>18</ele>
        <time>2023-11-01T22:33:55Z</time>
      </trkpt>
      <trkpt lat="47.08295" lon="-1.2741">
        <ele>18</ele>
        <time>2023-11-01T22:35:31Z</time>
      </trkpt>
      <trkpt lat="47.08283" lon="-1.27355">
        <ele>21</ele>
        <time>2023-11-01T22:36:24Z</time>
      </trkpt>
      <trkpt lat="47.08277" lon="-1.27283">
        <ele>25</ele>
        <time>2023-11-01T22:37:30Z</time>
      </trkpt>
      <trkpt lat="47.08305" lon="-1.27146">
        <ele>26</ele>
        <time>2023-11-01T22:39:40Z</time>
      </trkpt>
      <trkpt lat="47.08329" lon="-1.27092">
        <ele>24</ele>
        <time>2023-11-01T22:40:38Z</time>
      </trkpt>
      <trkpt lat="47.08357" lon="-1.27076">
        <ele>23</ele>
        <time>2023-11-01T22:41:18Z</time>
      </trkpt>
      <trkpt lat="47.08373" lon="-1.27053">
        <ele>22</ele>
        <time>2023-11-01T22:41:48Z</time>
      </trkpt>
      <trkpt lat="47.08389" lon="-1.26999">
        <ele>23</ele>
        <time>2023-11-01T22:42:42Z</time>
      </trkpt>
      <trkpt lat="47.08422" lon="-1.26959">
        <ele>21</ele>
        <time>2023-11-01T22:43:39Z</time>
      </trkpt>
      <trkpt lat="47.08425" lon="-1.26941">
        <ele>22</ele>
        <time>2023-11-01T22:43:56Z</time>
      </trkpt>
      <trkpt lat="47.08452" lon="-1.2694">
        <ele>20</ele>
        <time>2023-11-01T22:44:32Z</time>
      </trkpt>
      <trkpt lat="47.0845" lon="-1.26871">
        <ele>22</ele>
        <time>2023-11-01T22:45:35Z</time>
      </trkpt>
      <trkpt lat="47.08431" lon="-1.26822">
        <ele>24</ele>
        <time>2023-11-01T22:46:26Z</time>
      </trkpt>
      <trkpt lat="47.08403" lon="-1.2677">
        <ele>26</ele>
        <time>2023-11-01T22:47:26Z</time>
      </trkpt>
      <trkpt lat="47.08357" lon="-1.26724">
        <ele>27</ele>
        <time>2023-11-01T22:48:40Z</time>
      </trkpt>
      <trkpt lat="47.08315" lon="-1.2665">
        <ele>24</ele>
        <time>2023-11-01T22:50:08Z</time>
      </trkpt>
      <trkpt lat="47.08289" lon="-1.26623">
        <ele>25</ele>
        <time>2023-11-01T22:50:50Z</time>
      </trkpt>
      <trkpt lat="47.08333" lon="-1.26563">
        <ele>22</ele>
        <time>2023-11-01T22:52:11Z</time>
      </trkpt>
      <trkpt lat="47.08348" lon="-1.26533">
        <ele>25</ele>
        <time>2023-11-01T22:52:44Z</time>
      </trkpt>
      <trkpt lat="47.0838" lon="-1.26494">
        <ele>31</ele>
        <time>2023-11-01T22:53:40Z</time>
      </trkpt>
      <trkpt lat="47.08434" lon="-1.26458">
        <ele>35</ele>
        <time>2023-11-01T22:54:59Z</time>
      </trkpt>
      <trkpt lat="47.08506" lon="-1.26394">
        <ele>39</ele>
        <time>2023-11-01T22:56:51Z</time>
      </trkpt>
      <trkpt lat="47.0857" lon="-1.26574">
        <ele>37</ele>
        <time>2023-11-01T22:59:56Z</time>
      </trkpt>
      <trkpt lat="47.08597" lon="-1.26533">
        <ele>38</ele>
        <time>2023-11-01T23:00:48Z</time>
      </trkpt>
      <trkpt lat="47.08627" lon="-1.26463">
        <ele>39</ele>
        <time>2023-11-01T23:02:03Z</time>
      </trkpt>
      <trkpt lat="47.08616" lon="-1.26422">
        <ele>39</ele>
        <time>2023-11-01T23:02:43Z</time>
      </trkpt>
      <trkpt lat="47.08589" lon="-1.26379">
        <ele>39</ele>
        <time>2023-11-01T23:03:36Z</time>
      </trkpt>
      <trkpt lat="47.0858" lon="-1.26347">
        <ele>39</ele>
        <time>2023-11-01T23:04:07Z</time>
      </trkpt>
      <trkpt lat="47.08577" lon="-1.26295">
        <ele>38</ele>
        <time>2023-11-01T23:04:55Z</time>
      </trkpt>
      <trkpt lat="47.08545" lon="-1.26261">
        <ele>38</ele>
        <time>2023-11-01T23:05:48Z</time>
      </trkpt>
      <trkpt lat="47.08539" lon="-1.26224">
        <ele>38</ele>
        <time>2023-11-01T23:06:22Z</time>
      </trkpt>
    </trkseg>
  </trk>
  <trk>
    <name><![CDATA[Getigne_VieuxCheminRoyal_10km-7899428]]></name>
    <extensions>
      <line xmlns="http://www.topografix.com/GPX/gpx_style/0/2">
        <color>FF0000</color>
        <width>4</width>
      </line>
    </extensions>
    <trkseg>
      <trkpt lat="47.07227" lon="-1.25011">
        <ele>27</ele>
        <time>2023-11-01T19:02:46Z</time>
      </trkpt>
      <trkpt lat="47.07237" lon="-1.24998">
        <ele>27</ele>
        <time>2023-11-01T19:03:04Z</time>
      </trkpt>
      <trkpt lat="47.07239" lon="-1.24974">
        <ele>29</ele>
        <time>2023-11-01T19:03:26Z</time>
      </trkpt>
      <trkpt lat="47.07255" lon="-1.24925">
        <ele>32</ele>
        <time>2023-11-01T19:04:15Z</time>
      </trkpt>
      <trkpt lat="47.07174" lon="-1.24875">
        <ele>32</ele>
        <time>2023-11-01T19:06:12Z</time>
      </trkpt>
      <trkpt lat="47.07129" lon="-1.24751">
        <ele>32</ele>
        <time>2023-11-01T19:08:20Z</time>
      </trkpt>
      <trkpt lat="47.07104" lon="-1.24687">
        <ele>33</ele>
        <time>2023-11-01T19:09:27Z</time>
      </trkpt>
      <trkpt lat="47.07073" lon="-1.24658">
        <ele>32</ele>
        <time>2023-11-01T19:10:16Z</time>
      </trkpt>
      <trkpt lat="47.07008" lon="-1.24644">
        <ele>32</ele>
        <time>2023-11-01T19:11:44Z</time>
      </trkpt>
      <trkpt lat="47.06951" lon="-1.24636">
        <ele>29</ele>
        <time>2023-11-01T19:13:00Z</time>
      </trkpt>
      <trkpt lat="47.07005" lon="-1.24498">
        <ele>35</ele>
        <time>2023-11-01T19:15:25Z</time>
      </trkpt>
      <trkpt lat="47.07041" lon="-1.2441">
        <ele>38</ele>
        <time>2023-11-01T19:16:58Z</time>
      </trkpt>
      <trkpt lat="47.07081" lon="-1.24325">
        <ele>42</ele>
        <time>2023-11-01T19:18:32Z</time>
      </trkpt>
      <trkpt lat="47.07101" lon="-1.24269">
        <ele>42</ele>
        <time>2023-11-01T19:19:30Z</time>
      </trkpt>
      <trkpt lat="47.07136" lon="-1.24243">
        <ele>41</ele>
        <time>2023-11-01T19:20:22Z</time>
      </trkpt>
      <trkpt lat="47.07085" lon="-1.24166">
        <ele>41</ele>
        <time>2023-11-01T19:22:00Z</time>
      </trkpt>
      <trkpt lat="47.0703" lon="-1.24043">
        <ele>38</ele>
        <time>2023-11-01T19:24:13Z</time>
      </trkpt>
      <trkpt lat="47.06992" lon="-1.23983">
        <ele>35</ele>
        <time>2023-11-01T19:25:28Z</time>
      </trkpt>
      <trkpt lat="47.06977" lon="-1.23946">
        <ele>33</ele>
        <time>2023-11-01T19:26:07Z</time>
      </trkpt>
      <trkpt lat="47.06966" lon="-1.23889">
        <ele>32</ele>
        <time>2023-11-01T19:27:01Z</time>
      </trkpt>
      <trkpt lat="47.06958" lon="-1.23875">
        <ele>32</ele>
        <time>2023-11-01T19:27:17Z</time>
      </trkpt>
      <trkpt lat="47.0694" lon="-1.23868">
        <ele>31</ele>
        <time>2023-11-01T19:27:42Z</time>
      </trkpt>
      <trkpt lat="47.06924" lon="-1.23857">
        <ele>31</ele>
        <time>2023-11-01T19:28:06Z</time>
      </trkpt>
      <trkpt lat="47.06905" lon="-1.23809">
        <ele>32</ele>
        <time>2023-11-01T19:28:56Z</time>
      </trkpt>
      <trkpt lat="47.0689" lon="-1.23759">
        <ele>34</ele>
        <time>2023-11-01T19:29:46Z</time>
      </trkpt>
      <trkpt lat="47.06875" lon="-1.23727">
        <ele>34</ele>
        <time>2023-11-01T19:30:21Z</time>
      </trkpt>
      <trkpt lat="47.0685" lon="-1.23677">
        <ele>36</ele>
        <time>2023-11-01T19:31:18Z</time>
      </trkpt>
      <trkpt lat="47.06816" lon="-1.23636">
        <ele>36</ele>
        <time>2023-11-01T19:32:16Z</time>
      </trkpt>
      <trkpt lat="47.06781" lon="-1.23589">
        <ele>34</ele>
        <time>2023-11-01T19:33:20Z</time>
      </trkpt>
      <trkpt lat="47.0674" lon="-1.23514">
        <ele>31</ele>
        <time>2023-11-01T19:34:47Z</time>
      </trkpt>
      <trkpt lat="47.06711" lon="-1.23475">
        <ele>31</ele>
        <time>2023-11-01T19:35:40Z</time>
      </trkpt>
      <trkpt lat="47.0669" lon="-1.23444">
        <ele>31</ele>
        <time>2023-11-01T19:36:19Z</time>
      </trkpt>
      <trkpt lat="47.06677" lon="-1.23398">
        <ele>31</ele>
        <time>2023-11-01T19:37:05Z</time>
      </trkpt>
      <trkpt lat="47.06661" lon="-1.23303">
        <ele>32</ele>
        <time>2023-11-01T19:38:34Z</time>
      </trkpt>
      <trkpt lat="47.06657" lon="-1.23282">
        <ele>32</ele>
        <time>2023-11-01T19:38:53Z</time>
      </trkpt>
      <trkpt lat="47.06646" lon="-1.23247">
        <ele>33</ele>
        <time>2023-11-01T19:39:28Z</time>
      </trkpt>
      <trkpt lat="47.06628" lon="-1.23209">
        <ele>33</ele>
        <time>2023-11-01T19:40:10Z</time>
      </trkpt>
      <trkpt lat="47.06623" lon="-1.23171">
        <ele>33</ele>
        <time>2023-11-01T19:40:46Z</time>
      </trkpt>
      <trkpt lat="47.06625" lon="-1.23105">
        <ele>33</ele>
        <time>2023-11-01T19:41:46Z</time>
      </trkpt>
      <trkpt lat="47.0662" lon="-1.23102">
        <ele>33</ele>
        <time>2023-11-01T19:41:53Z</time>
      </trkpt>
      <trkpt lat="47.0661" lon="-1.23029">
        <ele>36</ele>
        <time>2023-11-01T19:43:01Z</time>
      </trkpt>
      <trkpt lat="47.06603" lon="-1.22992">
        <ele>39</ele>
        <time>2023-11-01T19:43:35Z</time>
      </trkpt>
      <trkpt lat="47.06588" lon="-1.22991">
        <ele>39</ele>
        <time>2023-11-01T19:43:56Z</time>
      </trkpt>
      <trkpt lat="47.06546" lon="-1.2305">
        <ele>35</ele>
        <time>2023-11-01T19:45:13Z</time>
      </trkpt>
      <trkpt lat="47.06523" lon="-1.23053">
        <ele>35</ele>
        <time>2023-11-01T19:45:44Z</time>
      </trkpt>
      <trkpt lat="47.06477" lon="-1.23026">
        <ele>37</ele>
        <time>2023-11-01T19:46:50Z</time>
      </trkpt>
      <trkpt lat="47.06421" lon="-1.23002">
        <ele>35</ele>
        <time>2023-11-01T19:48:08Z</time>
      </trkpt>
      <trkpt lat="47.06381" lon="-1.22934">
        <ele>36</ele>
        <time>2023-11-01T19:49:30Z</time>
      </trkpt>
      <trkpt lat="47.06328" lon="-1.22872">
        <ele>33</ele>
        <time>2023-11-01T19:51:00Z</time>
      </trkpt>
      <trkpt lat="47.06283" lon="-1.22818">
        <ele>33</ele>
        <time>2023-11-01T19:52:18Z</time>
      </trkpt>
      <trkpt lat="47.06239" lon="-1.22741">
        <ele>33</ele>
        <time>2023-11-01T19:53:49Z</time>
      </trkpt>
      <trkpt lat="47.06225" lon="-1.22707">
        <ele>35</ele>
        <time>2023-11-01T19:54:25Z</time>
      </trkpt>
      <trkpt lat="47.06223" lon="-1.22681">
        <ele>36</ele>
        <time>2023-11-01T19:54:49Z</time>
      </trkpt>
      <trkpt lat="47.06211" lon="-1.22659">
        <ele>35</ele>
        <time>2023-11-01T19:55:14Z</time>
      </trkpt>
      <trkpt lat="47.06203" lon="-1.22657">
        <ele>34</ele>
        <time>2023-11-01T19:55:25Z</time>
      </trkpt>
      <trkpt lat="47.06185" lon="-1.2264">
        <ele>33</ele>
        <time>2023-11-01T19:55:54Z</time>
      </trkpt>
      <trkpt lat="47.06172" lon="-1.22621">
        <ele>32</ele>
        <time>2023-11-01T19:56:18Z</time>
      </trkpt>
      <trkpt lat="47.06132" lon="-1.22548">
        <ele>35</ele>
        <time>2023-11-01T19:57:43Z</time>
      </trkpt>
      <trkpt lat="47.061" lon="-1.22475">
        <ele>35</ele>
        <time>2023-11-01T19:59:02Z</time>
      </trkpt>
      <trkpt lat="47.06075" lon="-1.22414">
        <ele>36</ele>
        <time>2023-11-01T20:00:07Z</time>
      </trkpt>
      <trkpt lat="47.06059" lon="-1.22397">
        <ele>36</ele>
        <time>2023-11-01T20:00:33Z</time>
      </trkpt>
      <trkpt lat="47.06028" lon="-1.22377">
        <ele>35</ele>
        <time>2023-11-01T20:01:19Z</time>
      </trkpt>
      <trkpt lat="47.06002" lon="-1.2237">
        <ele>34</ele>
        <time>2023-11-01T20:01:54Z</time>
      </trkpt>
      <trkpt lat="47.05982" lon="-1.22369">
        <ele>34</ele>
        <time>2023-11-01T20:02:21Z</time>
      </trkpt>
      <trkpt lat="47.05986" lon="-1.22315">
        <ele>40</ele>
        <time>2023-11-01T20:03:10Z</time>
      </trkpt>
      <trkpt lat="47.05994" lon="-1.22252">
        <ele>48</ele>
        <time>2023-11-01T20:04:08Z</time>
      </trkpt>
      <trkpt lat="47.05987" lon="-1.22211">
        <ele>49</ele>
        <time>2023-11-01T20:04:47Z</time>
      </trkpt>
      <trkpt lat="47.05973" lon="-1.22196">
        <ele>49</ele>
        <time>2023-11-01T20:05:10Z</time>
      </trkpt>
      <trkpt lat="47.0595" lon="-1.2219">
        <ele>50</ele>
        <time>2023-11-01T20:05:41Z</time>
      </trkpt>
      <trkpt lat="47.05849" lon="-1.22148">
        <ele>52</ele>
        <time>2023-11-01T20:08:01Z</time>
      </trkpt>
      <trkpt lat="47.05782" lon="-1.22099">
        <ele>50</ele>
        <time>2023-11-01T20:09:41Z</time>
      </trkpt>
      <trkpt lat="47.05755" lon="-1.22041">
        <ele>51</ele>
        <time>2023-11-01T20:10:45Z</time>
      </trkpt>
      <trkpt lat="47.05738" lon="-1.22014">
        <ele>51</ele>
        <time>2023-11-01T20:11:18Z</time>
      </trkpt>
      <trkpt lat="47.05724" lon="-1.2197">
        <ele>52</ele>
        <time>2023-11-01T20:12:02Z</time>
      </trkpt>
      <trkpt lat="47.05717" lon="-1.21892">
        <ele>53</ele>
        <time>2023-11-01T20:13:14Z</time>
      </trkpt>
      <trkpt lat="47.05689" lon="-1.21752">
        <ele>55</ele>
        <time>2023-11-01T20:15:27Z</time>
      </trkpt>
      <trkpt lat="47.05671" lon="-1.21641">
        <ele>56</ele>
        <time>2023-11-01T20:17:10Z</time>
      </trkpt>
      <trkpt lat="47.05669" lon="-1.21583">
        <ele>53</ele>
        <time>2023-11-01T20:18:03Z</time>
      </trkpt>
      <trkpt lat="47.05677" lon="-1.21533">
        <ele>51</ele>
        <time>2023-11-01T20:18:50Z</time>
      </trkpt>
      <trkpt lat="47.05686" lon="-1.21492">
        <ele>51</ele>
        <time>2023-11-01T20:19:29Z</time>
      </trkpt>
      <trkpt lat="47.05675" lon="-1.21427">
        <ele>52</ele>
        <time>2023-11-01T20:20:30Z</time>
      </trkpt>
      <trkpt lat="47.05672" lon="-1.2137">
        <ele>54</ele>
        <time>2023-11-01T20:21:22Z</time>
      </trkpt>
      <trkpt lat="47.05669" lon="-1.21327">
        <ele>56</ele>
        <time>2023-11-01T20:22:01Z</time>
      </trkpt>
      <trkpt lat="47.05648" lon="-1.21299">
        <ele>55</ele>
        <time>2023-11-01T20:22:39Z</time>
      </trkpt>
      <trkpt lat="47.05636" lon="-1.21262">
        <ele>56</ele>
        <time>2023-11-01T20:23:16Z</time>
      </trkpt>
      <trkpt lat="47.05637" lon="-1.21232">
        <ele>57</ele>
        <time>2023-11-01T20:23:44Z</time>
      </trkpt>
      <trkpt lat="47.05647" lon="-1.21206">
        <ele>59</ele>
        <time>2023-11-01T20:24:11Z</time>
      </trkpt>
      <trkpt lat="47.05651" lon="-1.21186">
        <ele>59</ele>
        <time>2023-11-01T20:24:30Z</time>
      </trkpt>
      <trkpt lat="47.05661" lon="-1.21176">
        <ele>60</ele>
        <time>2023-11-01T20:24:46Z</time>
      </trkpt>
      <trkpt lat="47.05672" lon="-1.21139">
        <ele>60</ele>
        <time>2023-11-01T20:25:22Z</time>
      </trkpt>
      <trkpt lat="47.05722" lon="-1.21078">
        <ele>57</ele>
        <time>2023-11-01T20:26:49Z</time>
      </trkpt>
      <trkpt lat="47.0578" lon="-1.2105">
        <ele>56</ele>
        <time>2023-11-01T20:28:11Z</time>
      </trkpt>
      <trkpt lat="47.05827" lon="-1.2108">
        <ele>59</ele>
        <time>2023-11-01T20:29:19Z</time>
      </trkpt>
      <trkpt lat="47.05891" lon="-1.21134">
        <ele>62</ele>
        <time>2023-11-01T20:30:58Z</time>
      </trkpt>
      <trkpt lat="47.05922" lon="-1.21074">
        <ele>61</ele>
        <time>2023-11-01T20:32:06Z</time>
      </trkpt>
      <trkpt lat="47.05954" lon="-1.21012">
        <ele>59</ele>
        <time>2023-11-01T20:33:17Z</time>
      </trkpt>
      <trkpt lat="47.05983" lon="-1.21076">
        <ele>61</ele>
        <time>2023-11-01T20:34:27Z</time>
      </trkpt>
      <trkpt lat="47.06028" lon="-1.21179">
        <ele>63</ele>
        <time>2023-11-01T20:36:18Z</time>
      </trkpt>
      <trkpt lat="47.061" lon="-1.2134">
        <ele>65</ele>
        <time>2023-11-01T20:39:13Z</time>
      </trkpt>
      <trkpt lat="47.06161" lon="-1.21503">
        <ele>65</ele>
        <time>2023-11-01T20:42:02Z</time>
      </trkpt>
      <trkpt lat="47.0621" lon="-1.21681">
        <ele>62</ele>
        <time>2023-11-01T20:44:57Z</time>
      </trkpt>
      <trkpt lat="47.06252" lon="-1.21827">
        <ele>59</ele>
        <time>2023-11-01T20:47:21Z</time>
      </trkpt>
      <trkpt lat="47.06277" lon="-1.21923">
        <ele>58</ele>
        <time>2023-11-01T20:48:54Z</time>
      </trkpt>
      <trkpt lat="47.0631" lon="-1.22009">
        <ele>57</ele>
        <time>2023-11-01T20:50:24Z</time>
      </trkpt>
      <trkpt lat="47.06321" lon="-1.22095">
        <ele>56</ele>
        <time>2023-11-01T20:51:43Z</time>
      </trkpt>
      <trkpt lat="47.06328" lon="-1.22224">
        <ele>56</ele>
        <time>2023-11-01T20:53:41Z</time>
      </trkpt>
      <trkpt lat="47.06347" lon="-1.22299">
        <ele>56</ele>
        <time>2023-11-01T20:54:54Z</time>
      </trkpt>
      <trkpt lat="47.06378" lon="-1.22376">
        <ele>55</ele>
        <time>2023-11-01T20:56:15Z</time>
      </trkpt>
      <trkpt lat="47.06401" lon="-1.22458">
        <ele>54</ele>
        <time>2023-11-01T20:57:36Z</time>
      </trkpt>
      <trkpt lat="47.06435" lon="-1.22413">
        <ele>57</ele>
        <time>2023-11-01T20:58:37Z</time>
      </trkpt>
      <trkpt lat="47.06477" lon="-1.22323">
        <ele>60</ele>
        <time>2023-11-01T21:00:16Z</time>
      </trkpt>
      <trkpt lat="47.06518" lon="-1.22383">
        <ele>60</ele>
        <time>2023-11-01T21:01:33Z</time>
      </trkpt>
      <trkpt lat="47.06561" lon="-1.22288">
        <ele>67</ele>
        <time>2023-11-01T21:03:17Z</time>
      </trkpt>
      <trkpt lat="47.06587" lon="-1.22228">
        <ele>70</ele>
        <time>2023-11-01T21:04:21Z</time>
      </trkpt>
      <trkpt lat="47.06641" lon="-1.22134">
        <ele>69</ele>
        <time>2023-11-01T21:06:13Z</time>
      </trkpt>
      <trkpt lat="47.06712" lon="-1.22018">
        <ele>69</ele>
        <time>2023-11-01T21:08:35Z</time>
      </trkpt>
      <trkpt lat="47.06739" lon="-1.21966">
        <ele>69</ele>
        <time>2023-11-01T21:09:34Z</time>
      </trkpt>
      <trkpt lat="47.06775" lon="-1.21898">
        <ele>68</ele>
        <time>2023-11-01T21:10:53Z</time>
      </trkpt>
      <trkpt lat="47.06812" lon="-1.21945">
        <ele>67</ele>
        <time>2023-11-01T21:11:58Z</time>
      </trkpt>
      <trkpt lat="47.06866" lon="-1.22048">
        <ele>65</ele>
        <time>2023-11-01T21:13:56Z</time>
      </trkpt>
      <trkpt lat="47.06926" lon="-1.22142">
        <ele>63</ele>
        <time>2023-11-01T21:15:53Z</time>
      </trkpt>
      <trkpt lat="47.06921" lon="-1.22284">
        <ele>61</ele>
        <time>2023-11-01T21:18:02Z</time>
      </trkpt>
      <trkpt lat="47.06975" lon="-1.22293">
        <ele>61</ele>
        <time>2023-11-01T21:19:15Z</time>
      </trkpt>
      <trkpt lat="47.07024" lon="-1.22273">
        <ele>61</ele>
        <time>2023-11-01T21:20:23Z</time>
      </trkpt>
      <trkpt lat="47.07078" lon="-1.2223">
        <ele>60</ele>
        <time>2023-11-01T21:21:45Z</time>
      </trkpt>
      <trkpt lat="47.07132" lon="-1.22153">
        <ele>60</ele>
        <time>2023-11-01T21:23:25Z</time>
      </trkpt>
      <trkpt lat="47.07151" lon="-1.22217">
        <ele>58</ele>
        <time>2023-11-01T21:24:29Z</time>
      </trkpt>
      <trkpt lat="47.07167" lon="-1.22269">
        <ele>56</ele>
        <time>2023-11-01T21:25:21Z</time>
      </trkpt>
      <trkpt lat="47.07192" lon="-1.22318">
        <ele>56</ele>
        <time>2023-11-01T21:26:16Z</time>
      </trkpt>
      <trkpt lat="47.07212" lon="-1.22337">
        <ele>55</ele>
        <time>2023-11-01T21:26:48Z</time>
      </trkpt>
      <trkpt lat="47.07222" lon="-1.22325">
        <ele>55</ele>
        <time>2023-11-01T21:27:05Z</time>
      </trkpt>
      <trkpt lat="47.07231" lon="-1.22304">
        <ele>55</ele>
        <time>2023-11-01T21:27:28Z</time>
      </trkpt>
      <trkpt lat="47.0725" lon="-1.22321">
        <ele>54</ele>
        <time>2023-11-01T21:27:58Z</time>
      </trkpt>
      <trkpt lat="47.07271" lon="-1.22372">
        <ele>54</ele>
        <time>2023-11-01T21:28:52Z</time>
      </trkpt>
      <trkpt lat="47.07277" lon="-1.22411">
        <ele>55</ele>
        <time>2023-11-01T21:29:28Z</time>
      </trkpt>
      <trkpt lat="47.07265" lon="-1.22443">
        <ele>54</ele>
        <time>2023-11-01T21:30:01Z</time>
      </trkpt>
      <trkpt lat="47.07268" lon="-1.22472">
        <ele>54</ele>
        <time>2023-11-01T21:30:28Z</time>
      </trkpt>
      <trkpt lat="47.07281" lon="-1.22516">
        <ele>55</ele>
        <time>2023-11-01T21:31:11Z</time>
      </trkpt>
      <trkpt lat="47.0729" lon="-1.22561">
        <ele>55</ele>
        <time>2023-11-01T21:31:54Z</time>
      </trkpt>
      <trkpt lat="47.07294" lon="-1.22638">
        <ele>55</ele>
        <time>2023-11-01T21:33:04Z</time>
      </trkpt>
      <trkpt lat="47.07307" lon="-1.2275">
        <ele>54</ele>
        <time>2023-11-01T21:34:48Z</time>
      </trkpt>
      <trkpt lat="47.07328" lon="-1.22868">
        <ele>54</ele>
        <time>2023-11-01T21:36:38Z</time>
      </trkpt>
      <trkpt lat="47.07382" lon="-1.2302">
        <ele>53</ele>
        <time>2023-11-01T21:39:14Z</time>
      </trkpt>
      <trkpt lat="47.07408" lon="-1.23181">
        <ele>51</ele>
        <time>2023-11-01T21:41:45Z</time>
      </trkpt>
      <trkpt lat="47.07421" lon="-1.23333">
        <ele>50</ele>
        <time>2023-11-01T21:44:04Z</time>
      </trkpt>
      <trkpt lat="47.07428" lon="-1.23496">
        <ele>49</ele>
        <time>2023-11-01T21:46:32Z</time>
      </trkpt>
      <trkpt lat="47.07436" lon="-1.23616">
        <ele>48</ele>
        <time>2023-11-01T21:48:22Z</time>
      </trkpt>
      <trkpt lat="47.07431" lon="-1.23732">
        <ele>47</ele>
        <time>2023-11-01T21:50:07Z</time>
      </trkpt>
      <trkpt lat="47.07427" lon="-1.23835">
        <ele>46</ele>
        <time>2023-11-01T21:51:41Z</time>
      </trkpt>
      <trkpt lat="47.07417" lon="-1.23921">
        <ele>46</ele>
        <time>2023-11-01T21:53:01Z</time>
      </trkpt>
      <trkpt lat="47.07415" lon="-1.23988">
        <ele>46</ele>
        <time>2023-11-01T21:54:01Z</time>
      </trkpt>
      <trkpt lat="47.07399" lon="-1.24074">
        <ele>45</ele>
        <time>2023-11-01T21:55:22Z</time>
      </trkpt>
      <trkpt lat="47.07395" lon="-1.24177">
        <ele>45</ele>
        <time>2023-11-01T21:56:56Z</time>
      </trkpt>
      <trkpt lat="47.07396" lon="-1.24297">
        <ele>43</ele>
        <time>2023-11-01T21:58:45Z</time>
      </trkpt>
      <trkpt lat="47.07392" lon="-1.24378">
        <ele>42</ele>
        <time>2023-11-01T21:59:59Z</time>
      </trkpt>
      <trkpt lat="47.07399" lon="-1.24455">
        <ele>41</ele>
        <time>2023-11-01T22:01:10Z</time>
      </trkpt>
      <trkpt lat="47.07418" lon="-1.24554">
        <ele>43</ele>
        <time>2023-11-01T22:02:43Z</time>
      </trkpt>
      <trkpt lat="47.07431" lon="-1.24621">
        <ele>43</ele>
        <time>2023-11-01T22:03:47Z</time>
      </trkpt>
      <trkpt lat="47.07459" lon="-1.24722">
        <ele>42</ele>
        <time>2023-11-01T22:05:26Z</time>
      </trkpt>
      <trkpt lat="47.07469" lon="-1.24807">
        <ele>40</ele>
        <time>2023-11-01T22:06:44Z</time>
      </trkpt>
      <trkpt lat="47.07477" lon="-1.24859">
        <ele>39</ele>
        <time>2023-11-01T22:07:32Z</time>
      </trkpt>
      <trkpt lat="47.07503" lon="-1.2491">
        <ele>37</ele>
        <time>2023-11-01T22:08:30Z</time>
      </trkpt>
      <trkpt lat="47.07504" lon="-1.2497">
        <ele>35</ele>
        <time>2023-11-01T22:09:25Z</time>
      </trkpt>
      <trkpt lat="47.07524" lon="-1.24992">
        <ele>34</ele>
        <time>2023-11-01T22:09:58Z</time>
      </trkpt>
      <trkpt lat="47.07515" lon="-1.25026">
        <ele>33</ele>
        <time>2023-11-01T22:10:31Z</time>
      </trkpt>
      <trkpt lat="47.07483" lon="-1.25041">
        <ele>32</ele>
        <time>2023-11-01T22:11:16Z</time>
      </trkpt>
      <trkpt lat="47.07459" lon="-1.25074">
        <ele>30</ele>
        <time>2023-11-01T22:12:00Z</time>
      </trkpt>
      <trkpt lat="47.07466" lon="-1.25114">
        <ele>28</ele>
        <time>2023-11-01T22:12:38Z</time>
      </trkpt>
      <trkpt lat="47.07476" lon="-1.25136">
        <ele>27</ele>
        <time>2023-11-01T22:13:02Z</time>
      </trkpt>
      <trkpt lat="47.07499" lon="-1.25182">
        <ele>25</ele>
        <time>2023-11-01T22:13:54Z</time>
      </trkpt>
      <trkpt lat="47.07478" lon="-1.2519">
        <ele>25</ele>
        <time>2023-11-01T22:14:23Z</time>
      </trkpt>
      <trkpt lat="47.07463" lon="-1.25177">
        <ele>25</ele>
        <time>2023-11-01T22:14:46Z</time>
      </trkpt>
      <trkpt lat="47.07451" lon="-1.25156">
        <ele>26</ele>
        <time>2023-11-01T22:15:11Z</time>
      </trkpt>
      <trkpt lat="47.07432" lon="-1.25152">
        <ele>26</ele>
        <time>2023-11-01T22:15:36Z</time>
      </trkpt>
      <trkpt lat="47.07423" lon="-1.25135">
        <ele>27</ele>
        <time>2023-11-01T22:15:56Z</time>
      </trkpt>
      <trkpt lat="47.07422" lon="-1.25116">
        <ele>27</ele>
        <time>2023-11-01T22:16:13Z</time>
      </trkpt>
      <trkpt lat="47.07407" lon="-1.25104">
        <ele>27</ele>
        <time>2023-11-01T22:16:36Z</time>
      </trkpt>
      <trkpt lat="47.07391" lon="-1.25113">
        <ele>26</ele>
        <time>2023-11-01T22:16:59Z</time>
      </trkpt>
      <trkpt lat="47.07373" lon="-1.25145">
        <ele>24</ele>
        <time>2023-11-01T22:17:37Z</time>
      </trkpt>
      <trkpt lat="47.07345" lon="-1.25161">
        <ele>23</ele>
        <time>2023-11-01T22:18:17Z</time>
      </trkpt>
      <trkpt lat="47.07329" lon="-1.25158">
        <ele>23</ele>
        <time>2023-11-01T22:18:38Z</time>
      </trkpt>
      <trkpt lat="47.07312" lon="-1.25174">
        <ele>23</ele>
        <time>2023-11-01T22:19:05Z</time>
      </trkpt>
      <trkpt lat="47.07291" lon="-1.25203">
        <ele>23</ele>
        <time>2023-11-01T22:19:44Z</time>
      </trkpt>
      <trkpt lat="47.0727" lon="-1.25232">
        <ele>22</ele>
        <time>2023-11-01T22:20:22Z</time>
      </trkpt>
      <trkpt lat="47.07249" lon="-1.25254">
        <ele>21</ele>
        <time>2023-11-01T22:20:56Z</time>
      </trkpt>
      <trkpt lat="47.07229" lon="-1.25249">
        <ele>22</ele>
        <time>2023-11-01T22:21:24Z</time>
      </trkpt>
      <trkpt lat="47.07217" lon="-1.25225">
        <ele>22</ele>
        <time>2023-11-01T22:21:51Z</time>
      </trkpt>
      <trkpt lat="47.07201" lon="-1.25194">
        <ele>23</ele>
        <time>2023-11-01T22:22:26Z</time>
      </trkpt>
      <trkpt lat="47.07196" lon="-1.25159">
        <ele>24</ele>
        <time>2023-11-01T22:22:58Z</time>
      </trkpt>
      <trkpt lat="47.07184" lon="-1.25119">
        <ele>24</ele>
        <time>2023-11-01T22:23:38Z</time>
      </trkpt>
      <trkpt lat="47.07201" lon="-1.25087">
        <ele>24</ele>
        <time>2023-11-01T22:24:15Z</time>
      </trkpt>
      <trkpt lat="47.07218" lon="-1.2508">
        <ele>24</ele>
        <time>2023-11-01T22:24:39Z</time>
      </trkpt>
      <trkpt lat="47.07254" lon="-1.25036">
        <ele>26</ele>
        <time>2023-11-01T22:25:41Z</time>
      </trkpt>
      <trkpt lat="47.07244" lon="-1.25005">
        <ele>27</ele>
        <time>2023-11-01T22:26:12Z</time>
      </trkpt>
      <trkpt lat="47.07223" lon="-1.24989">
        <ele>28</ele>
        <time>2023-11-01T22:26:44Z</time>
      </trkpt>
    </trkseg>
  </trk>
  <trk>
    <name><![CDATA[Gétigné_Anerie RousselinRoyal_21.8km-9380870]]></name>
    <extensions>
      <line xmlns="http://www.topografix.com/GPX/gpx_style/0/2">
        <color>00FFFF</color>
        <width>4</width>
      </line>
    </extensions>
    <trkseg>
      <trkpt lat="47.06854" lon="-1.22731">
        <ele>49</ele>
        <time>2023-11-01T19:02:35Z</time>
      </trkpt>
      <trkpt lat="47.06828" lon="-1.22877">
        <ele>44</ele>
        <time>2023-11-01T19:04:52Z</time>
      </trkpt>
      <trkpt lat="47.06746" lon="-1.22898">
        <ele>41</ele>
        <time>2023-11-01T19:06:43Z</time>
      </trkpt>
      <trkpt lat="47.06688" lon="-1.22988">
        <ele>37</ele>
        <time>2023-11-01T19:08:36Z</time>
      </trkpt>
      <trkpt lat="47.06629" lon="-1.23104">
        <ele>33</ele>
        <time>2023-11-01T19:10:47Z</time>
      </trkpt>
      <trkpt lat="47.06618" lon="-1.23187">
        <ele>33</ele>
        <time>2023-11-01T19:12:04Z</time>
      </trkpt>
      <trkpt lat="47.06649" lon="-1.23262">
        <ele>32</ele>
        <time>2023-11-01T19:13:24Z</time>
      </trkpt>
      <trkpt lat="47.06702" lon="-1.23456">
        <ele>31</ele>
        <time>2023-11-01T19:16:34Z</time>
      </trkpt>
      <trkpt lat="47.06865" lon="-1.23699">
        <ele>35</ele>
        <time>2023-11-01T19:21:44Z</time>
      </trkpt>
      <trkpt lat="47.0692" lon="-1.23858">
        <ele>31</ele>
        <time>2023-11-01T19:24:26Z</time>
      </trkpt>
      <trkpt lat="47.06977" lon="-1.23907">
        <ele>33</ele>
        <time>2023-11-01T19:25:54Z</time>
      </trkpt>
      <trkpt lat="47.0699" lon="-1.23987">
        <ele>35</ele>
        <time>2023-11-01T19:27:09Z</time>
      </trkpt>
      <trkpt lat="47.07082" lon="-1.24143">
        <ele>41</ele>
        <time>2023-11-01T19:30:17Z</time>
      </trkpt>
      <trkpt lat="47.07138" lon="-1.24241">
        <ele>41</ele>
        <time>2023-11-01T19:32:13Z</time>
      </trkpt>
      <trkpt lat="47.07085" lon="-1.24284">
        <ele>42</ele>
        <time>2023-11-01T19:33:34Z</time>
      </trkpt>
      <trkpt lat="47.06953" lon="-1.24635">
        <ele>29</ele>
        <time>2023-11-01T19:39:38Z</time>
      </trkpt>
      <trkpt lat="47.07079" lon="-1.24653">
        <ele>32</ele>
        <time>2023-11-01T19:42:27Z</time>
      </trkpt>
      <trkpt lat="47.07006" lon="-1.24838">
        <ele>26</ele>
        <time>2023-11-01T19:45:41Z</time>
      </trkpt>
      <trkpt lat="47.06968" lon="-1.24876">
        <ele>24</ele>
        <time>2023-11-01T19:46:43Z</time>
      </trkpt>
      <trkpt lat="47.07021" lon="-1.24984">
        <ele>26</ele>
        <time>2023-11-01T19:48:44Z</time>
      </trkpt>
      <trkpt lat="47.07144" lon="-1.25019">
        <ele>26</ele>
        <time>2023-11-01T19:51:31Z</time>
      </trkpt>
      <trkpt lat="47.07141" lon="-1.2504">
        <ele>25</ele>
        <time>2023-11-01T19:51:50Z</time>
      </trkpt>
      <trkpt lat="47.07208" lon="-1.25228">
        <ele>22</ele>
        <time>2023-11-01T19:55:03Z</time>
      </trkpt>
      <trkpt lat="47.0725" lon="-1.25248">
        <ele>21</ele>
        <time>2023-11-01T19:56:02Z</time>
      </trkpt>
      <trkpt lat="47.07326" lon="-1.2515">
        <ele>23</ele>
        <time>2023-11-01T19:58:17Z</time>
      </trkpt>
      <trkpt lat="47.07375" lon="-1.25156">
        <ele>24</ele>
        <time>2023-11-01T19:59:23Z</time>
      </trkpt>
      <trkpt lat="47.07407" lon="-1.25115">
        <ele>27</ele>
        <time>2023-11-01T20:00:19Z</time>
      </trkpt>
      <trkpt lat="47.07455" lon="-1.25164">
        <ele>25</ele>
        <time>2023-11-01T20:01:37Z</time>
      </trkpt>
      <trkpt lat="47.07479" lon="-1.2519">
        <ele>25</ele>
        <time>2023-11-01T20:02:17Z</time>
      </trkpt>
      <trkpt lat="47.07512" lon="-1.25203">
        <ele>25</ele>
        <time>2023-11-01T20:03:03Z</time>
      </trkpt>
      <trkpt lat="47.07529" lon="-1.25213">
        <ele>25</ele>
        <time>2023-11-01T20:03:27Z</time>
      </trkpt>
      <trkpt lat="47.07539" lon="-1.25209">
        <ele>25</ele>
        <time>2023-11-01T20:03:41Z</time>
      </trkpt>
      <trkpt lat="47.0755" lon="-1.25217">
        <ele>25</ele>
        <time>2023-11-01T20:03:57Z</time>
      </trkpt>
      <trkpt lat="47.07606" lon="-1.25177">
        <ele>27</ele>
        <time>2023-11-01T20:05:21Z</time>
      </trkpt>
      <trkpt lat="47.07594" lon="-1.25137">
        <ele>27</ele>
        <time>2023-11-01T20:06:00Z</time>
      </trkpt>
      <trkpt lat="47.07597" lon="-1.25079">
        <ele>29</ele>
        <time>2023-11-01T20:06:53Z</time>
      </trkpt>
      <trkpt lat="47.07622" lon="-1.25074">
        <ele>30</ele>
        <time>2023-11-01T20:07:27Z</time>
      </trkpt>
      <trkpt lat="47.07627" lon="-1.25002">
        <ele>31</ele>
        <time>2023-11-01T20:08:33Z</time>
      </trkpt>
      <trkpt lat="47.07635" lon="-1.2498">
        <ele>31</ele>
        <time>2023-11-01T20:08:55Z</time>
      </trkpt>
      <trkpt lat="47.07657" lon="-1.24982">
        <ele>31</ele>
        <time>2023-11-01T20:09:25Z</time>
      </trkpt>
      <trkpt lat="47.07672" lon="-1.24892">
        <ele>30</ele>
        <time>2023-11-01T20:10:49Z</time>
      </trkpt>
      <trkpt lat="47.07654" lon="-1.24878">
        <ele>30</ele>
        <time>2023-11-01T20:11:16Z</time>
      </trkpt>
      <trkpt lat="47.0763" lon="-1.24904">
        <ele>31</ele>
        <time>2023-11-01T20:11:56Z</time>
      </trkpt>
      <trkpt lat="47.07641" lon="-1.2485">
        <ele>32</ele>
        <time>2023-11-01T20:12:47Z</time>
      </trkpt>
      <trkpt lat="47.07547" lon="-1.24818">
        <ele>39</ele>
        <time>2023-11-01T20:14:56Z</time>
      </trkpt>
      <trkpt lat="47.07506" lon="-1.24898">
        <ele>37</ele>
        <time>2023-11-01T20:16:27Z</time>
      </trkpt>
      <trkpt lat="47.07478" lon="-1.24865">
        <ele>39</ele>
        <time>2023-11-01T20:17:15Z</time>
      </trkpt>
      <trkpt lat="47.07432" lon="-1.24597">
        <ele>44</ele>
        <time>2023-11-01T20:21:26Z</time>
      </trkpt>
      <trkpt lat="47.07397" lon="-1.24439">
        <ele>41</ele>
        <time>2023-11-01T20:23:57Z</time>
      </trkpt>
      <trkpt lat="47.07392" lon="-1.24353">
        <ele>42</ele>
        <time>2023-11-01T20:25:15Z</time>
      </trkpt>
      <trkpt lat="47.07396" lon="-1.24046">
        <ele>45</ele>
        <time>2023-11-01T20:29:54Z</time>
      </trkpt>
      <trkpt lat="47.0743" lon="-1.23851">
        <ele>46</ele>
        <time>2023-11-01T20:32:57Z</time>
      </trkpt>
      <trkpt lat="47.07432" lon="-1.23578">
        <ele>48</ele>
        <time>2023-11-01T20:37:06Z</time>
      </trkpt>
      <trkpt lat="47.07416" lon="-1.23332">
        <ele>50</ele>
        <time>2023-11-01T20:40:50Z</time>
      </trkpt>
      <trkpt lat="47.07401" lon="-1.23096">
        <ele>53</ele>
        <time>2023-11-01T20:44:26Z</time>
      </trkpt>
      <trkpt lat="47.07337" lon="-1.22877">
        <ele>55</ele>
        <time>2023-11-01T20:48:02Z</time>
      </trkpt>
      <trkpt lat="47.07307" lon="-1.22772">
        <ele>54</ele>
        <time>2023-11-01T20:49:46Z</time>
      </trkpt>
      <trkpt lat="47.07295" lon="-1.22575">
        <ele>55</ele>
        <time>2023-11-01T20:52:45Z</time>
      </trkpt>
      <trkpt lat="47.07266" lon="-1.22435">
        <ele>54</ele>
        <time>2023-11-01T20:54:58Z</time>
      </trkpt>
      <trkpt lat="47.07269" lon="-1.22387">
        <ele>54</ele>
        <time>2023-11-01T20:55:42Z</time>
      </trkpt>
      <trkpt lat="47.0725" lon="-1.22313">
        <ele>55</ele>
        <time>2023-11-01T20:56:54Z</time>
      </trkpt>
      <trkpt lat="47.07203" lon="-1.22341">
        <ele>55</ele>
        <time>2023-11-01T20:58:02Z</time>
      </trkpt>
      <trkpt lat="47.07144" lon="-1.22164">
        <ele>60</ele>
        <time>2023-11-01T21:01:01Z</time>
      </trkpt>
      <trkpt lat="47.07068" lon="-1.22233">
        <ele>60</ele>
        <time>2023-11-01T21:03:00Z</time>
      </trkpt>
      <trkpt lat="47.06992" lon="-1.22293">
        <ele>61</ele>
        <time>2023-11-01T21:04:55Z</time>
      </trkpt>
      <trkpt lat="47.06913" lon="-1.22293">
        <ele>61</ele>
        <time>2023-11-01T21:06:41Z</time>
      </trkpt>
      <trkpt lat="47.06924" lon="-1.22134">
        <ele>63</ele>
        <time>2023-11-01T21:09:06Z</time>
      </trkpt>
      <trkpt lat="47.06773" lon="-1.21902">
        <ele>68</ele>
        <time>2023-11-01T21:13:58Z</time>
      </trkpt>
      <trkpt lat="47.06518" lon="-1.2237">
        <ele>61</ele>
        <time>2023-11-01T21:23:02Z</time>
      </trkpt>
      <trkpt lat="47.06483" lon="-1.22323">
        <ele>61</ele>
        <time>2023-11-01T21:24:06Z</time>
      </trkpt>
      <trkpt lat="47.06392" lon="-1.22456">
        <ele>54</ele>
        <time>2023-11-01T21:26:57Z</time>
      </trkpt>
      <trkpt lat="47.06328" lon="-1.22229">
        <ele>56</ele>
        <time>2023-11-01T21:30:40Z</time>
      </trkpt>
      <trkpt lat="47.06319" lon="-1.22018">
        <ele>57</ele>
        <time>2023-11-01T21:33:53Z</time>
      </trkpt>
      <trkpt lat="47.06254" lon="-1.21868">
        <ele>59</ele>
        <time>2023-11-01T21:36:34Z</time>
      </trkpt>
      <trkpt lat="47.06173" lon="-1.21546">
        <ele>65</ele>
        <time>2023-11-01T21:41:46Z</time>
      </trkpt>
      <trkpt lat="47.05942" lon="-1.2098">
        <ele>58</ele>
        <time>2023-11-01T21:51:46Z</time>
      </trkpt>
      <trkpt lat="47.05834" lon="-1.20838">
        <ele>59</ele>
        <time>2023-11-01T21:54:59Z</time>
      </trkpt>
      <trkpt lat="47.0572" lon="-1.20602">
        <ele>63</ele>
        <time>2023-11-01T21:59:22Z</time>
      </trkpt>
      <trkpt lat="47.05571" lon="-1.20117">
        <ele>66</ele>
        <time>2023-11-01T22:07:26Z</time>
      </trkpt>
      <trkpt lat="47.05688" lon="-1.19883">
        <ele>72</ele>
        <time>2023-11-01T22:11:50Z</time>
      </trkpt>
      <trkpt lat="47.05926" lon="-1.19931">
        <ele>73</ele>
        <time>2023-11-01T22:17:11Z</time>
      </trkpt>
      <trkpt lat="47.05802" lon="-1.19291">
        <ele>72</ele>
        <time>2023-11-01T22:27:16Z</time>
      </trkpt>
      <trkpt lat="47.05626" lon="-1.1916">
        <ele>72</ele>
        <time>2023-11-01T22:31:39Z</time>
      </trkpt>
      <trkpt lat="47.05487" lon="-1.19154">
        <ele>70</ele>
        <time>2023-11-01T22:34:44Z</time>
      </trkpt>
      <trkpt lat="47.05281" lon="-1.18818">
        <ele>69</ele>
        <time>2023-11-01T22:41:35Z</time>
      </trkpt>
      <trkpt lat="47.05152" lon="-1.19021">
        <ele>70</ele>
        <time>2023-11-01T22:45:48Z</time>
      </trkpt>
      <trkpt lat="47.0501" lon="-1.19085">
        <ele>71</ele>
        <time>2023-11-01T22:49:06Z</time>
      </trkpt>
      <trkpt lat="47.04879" lon="-1.19424">
        <ele>69</ele>
        <time>2023-11-01T22:55:00Z</time>
      </trkpt>
      <trkpt lat="47.04999" lon="-1.19594">
        <ele>64</ele>
        <time>2023-11-01T22:58:43Z</time>
      </trkpt>
      <trkpt lat="47.0498" lon="-1.19735">
        <ele>64</ele>
        <time>2023-11-01T23:00:54Z</time>
      </trkpt>
      <trkpt lat="47.04705" lon="-1.20302">
        <ele>49</ele>
        <time>2023-11-01T23:11:26Z</time>
      </trkpt>
      <trkpt lat="47.04767" lon="-1.20396">
        <ele>53</ele>
        <time>2023-11-01T23:13:25Z</time>
      </trkpt>
      <trkpt lat="47.04746" lon="-1.20443">
        <ele>52</ele>
        <time>2023-11-01T23:14:17Z</time>
      </trkpt>
      <trkpt lat="47.047" lon="-1.20602">
        <ele>43</ele>
        <time>2023-11-01T23:16:54Z</time>
      </trkpt>
      <trkpt lat="47.04761" lon="-1.20611">
        <ele>43</ele>
        <time>2023-11-01T23:18:15Z</time>
      </trkpt>
      <trkpt lat="47.0467" lon="-1.20649">
        <ele>37</ele>
        <time>2023-11-01T23:20:22Z</time>
      </trkpt>
      <trkpt lat="47.04615" lon="-1.20538">
        <ele>38</ele>
        <time>2023-11-01T23:22:26Z</time>
      </trkpt>
      <trkpt lat="47.04647" lon="-1.20216">
        <ele>42</ele>
        <time>2023-11-01T23:27:22Z</time>
      </trkpt>
      <trkpt lat="47.04451" lon="-1.20126">
        <ele>43</ele>
        <time>2023-11-01T23:31:56Z</time>
      </trkpt>
      <trkpt lat="47.04343" lon="-1.20156">
        <ele>43</ele>
        <time>2023-11-01T23:34:23Z</time>
      </trkpt>
      <trkpt lat="47.04262" lon="-1.20236">
        <ele>38</ele>
        <time>2023-11-01T23:36:33Z</time>
      </trkpt>
      <trkpt lat="47.04239" lon="-1.2025">
        <ele>36</ele>
        <time>2023-11-01T23:37:07Z</time>
      </trkpt>
      <trkpt lat="47.04226" lon="-1.20271">
        <ele>37</ele>
        <time>2023-11-01T23:37:32Z</time>
      </trkpt>
      <trkpt lat="47.04185" lon="-1.20226">
        <ele>35</ele>
        <time>2023-11-01T23:38:41Z</time>
      </trkpt>
      <trkpt lat="47.04187" lon="-1.20202">
        <ele>37</ele>
        <time>2023-11-01T23:39:03Z</time>
      </trkpt>
      <trkpt lat="47.04235" lon="-1.20197">
        <ele>41</ele>
        <time>2023-11-01T23:40:07Z</time>
      </trkpt>
      <trkpt lat="47.04221" lon="-1.20161">
        <ele>43</ele>
        <time>2023-11-01T23:40:45Z</time>
      </trkpt>
      <trkpt lat="47.04183" lon="-1.20118">
        <ele>47</ele>
        <time>2023-11-01T23:41:49Z</time>
      </trkpt>
      <trkpt lat="47.04196" lon="-1.20094">
        <ele>51</ele>
        <time>2023-11-01T23:42:17Z</time>
      </trkpt>
      <trkpt lat="47.04263" lon="-1.20114">
        <ele>51</ele>
        <time>2023-11-01T23:43:48Z</time>
      </trkpt>
      <trkpt lat="47.04314" lon="-1.20095">
        <ele>53</ele>
        <time>2023-11-01T23:44:58Z</time>
      </trkpt>
      <trkpt lat="47.04397" lon="-1.19966">
        <ele>65</ele>
        <time>2023-11-01T23:47:39Z</time>
      </trkpt>
      <trkpt lat="47.04629" lon="-1.19737">
        <ele>72</ele>
        <time>2023-11-01T23:53:52Z</time>
      </trkpt>
      <trkpt lat="47.04571" lon="-1.19276">
        <ele>75</ele>
        <time>2023-11-02T00:00:59Z</time>
      </trkpt>
      <trkpt lat="47.04497" lon="-1.19147">
        <ele>76</ele>
        <time>2023-11-02T00:03:32Z</time>
      </trkpt>
      <trkpt lat="47.04455" lon="-1.18989">
        <ele>76</ele>
        <time>2023-11-02T00:06:06Z</time>
      </trkpt>
      <trkpt lat="47.04299" lon="-1.19038">
        <ele>73</ele>
        <time>2023-11-02T00:09:39Z</time>
      </trkpt>
      <trkpt lat="47.0426" lon="-1.19106">
        <ele>72</ele>
        <time>2023-11-02T00:11:00Z</time>
      </trkpt>
      <trkpt lat="47.04167" lon="-1.19532">
        <ele>65</ele>
        <time>2023-11-02T00:17:47Z</time>
      </trkpt>
      <trkpt lat="47.04042" lon="-1.19729">
        <ele>46</ele>
        <time>2023-11-02T00:21:52Z</time>
      </trkpt>
      <trkpt lat="47.04065" lon="-1.20008">
        <ele>43</ele>
        <time>2023-11-02T00:26:07Z</time>
      </trkpt>
      <trkpt lat="47.0409" lon="-1.20084">
        <ele>42</ele>
        <time>2023-11-02T00:27:24Z</time>
      </trkpt>
      <trkpt lat="47.04133" lon="-1.20124">
        <ele>42</ele>
        <time>2023-11-02T00:28:32Z</time>
      </trkpt>
      <trkpt lat="47.04148" lon="-1.20185">
        <ele>37</ele>
        <time>2023-11-02T00:29:31Z</time>
      </trkpt>
      <trkpt lat="47.04178" lon="-1.2021">
        <ele>36</ele>
        <time>2023-11-02T00:30:17Z</time>
      </trkpt>
      <trkpt lat="47.04185" lon="-1.20255">
        <ele>33</ele>
        <time>2023-11-02T00:30:59Z</time>
      </trkpt>
      <trkpt lat="47.0417" lon="-1.20309">
        <ele>35</ele>
        <time>2023-11-02T00:31:52Z</time>
      </trkpt>
      <trkpt lat="47.04197" lon="-1.20405">
        <ele>47</ele>
        <time>2023-11-02T00:33:26Z</time>
      </trkpt>
      <trkpt lat="47.04229" lon="-1.20468">
        <ele>54</ele>
        <time>2023-11-02T00:34:38Z</time>
      </trkpt>
      <trkpt lat="47.0424" lon="-1.20622">
        <ele>62</ele>
        <time>2023-11-02T00:36:59Z</time>
      </trkpt>
      <trkpt lat="47.04273" lon="-1.20782">
        <ele>65</ele>
        <time>2023-11-02T00:39:31Z</time>
      </trkpt>
      <trkpt lat="47.04344" lon="-1.20933">
        <ele>70</ele>
        <time>2023-11-02T00:42:17Z</time>
      </trkpt>
      <trkpt lat="47.04463" lon="-1.20975">
        <ele>70</ele>
        <time>2023-11-02T00:45:01Z</time>
      </trkpt>
      <trkpt lat="47.04508" lon="-1.21037">
        <ele>69</ele>
        <time>2023-11-02T00:46:23Z</time>
      </trkpt>
      <trkpt lat="47.0449" lon="-1.2108">
        <ele>68</ele>
        <time>2023-11-02T00:47:09Z</time>
      </trkpt>
      <trkpt lat="47.04485" lon="-1.21152">
        <ele>65</ele>
        <time>2023-11-02T00:48:15Z</time>
      </trkpt>
      <trkpt lat="47.04567" lon="-1.21188">
        <ele>61</ele>
        <time>2023-11-02T00:50:09Z</time>
      </trkpt>
      <trkpt lat="47.04586" lon="-1.21158">
        <ele>61</ele>
        <time>2023-11-02T00:50:46Z</time>
      </trkpt>
      <trkpt lat="47.04677" lon="-1.21244">
        <ele>57</ele>
        <time>2023-11-02T00:53:11Z</time>
      </trkpt>
      <trkpt lat="47.04733" lon="-1.21354">
        <ele>59</ele>
        <time>2023-11-02T00:55:16Z</time>
      </trkpt>
      <trkpt lat="47.04802" lon="-1.21405">
        <ele>60</ele>
        <time>2023-11-02T00:56:59Z</time>
      </trkpt>
      <trkpt lat="47.0489" lon="-1.21319">
        <ele>56</ele>
        <time>2023-11-02T00:59:20Z</time>
      </trkpt>
      <trkpt lat="47.0491" lon="-1.21186">
        <ele>49</ele>
        <time>2023-11-02T01:01:24Z</time>
      </trkpt>
      <trkpt lat="47.04972" lon="-1.21087">
        <ele>40</ele>
        <time>2023-11-02T01:03:26Z</time>
      </trkpt>
      <trkpt lat="47.04998" lon="-1.21126">
        <ele>40</ele>
        <time>2023-11-02T01:04:15Z</time>
      </trkpt>
      <trkpt lat="47.05065" lon="-1.211">
        <ele>37</ele>
        <time>2023-11-02T01:05:48Z</time>
      </trkpt>
      <trkpt lat="47.0501" lon="-1.21109">
        <ele>39</ele>
        <time>2023-11-02T01:07:02Z</time>
      </trkpt>
      <trkpt lat="47.04988" lon="-1.21185">
        <ele>41</ele>
        <time>2023-11-02T01:08:17Z</time>
      </trkpt>
      <trkpt lat="47.04994" lon="-1.21259">
        <ele>40</ele>
        <time>2023-11-02T01:09:25Z</time>
      </trkpt>
      <trkpt lat="47.05043" lon="-1.21348">
        <ele>40</ele>
        <time>2023-11-02T01:11:09Z</time>
      </trkpt>
      <trkpt lat="47.05143" lon="-1.21512">
        <ele>34</ele>
        <time>2023-11-02T01:14:29Z</time>
      </trkpt>
      <trkpt lat="47.05249" lon="-1.21587">
        <ele>28</ele>
        <time>2023-11-02T01:17:06Z</time>
      </trkpt>
      <trkpt lat="47.05301" lon="-1.21584">
        <ele>29</ele>
        <time>2023-11-02T01:18:15Z</time>
      </trkpt>
      <trkpt lat="47.05372" lon="-1.21905">
        <ele>30</ele>
        <time>2023-11-02T01:23:22Z</time>
      </trkpt>
      <trkpt lat="47.05377" lon="-1.2201">
        <ele>32</ele>
        <time>2023-11-02T01:24:58Z</time>
      </trkpt>
      <trkpt lat="47.05421" lon="-1.221">
        <ele>34</ele>
        <time>2023-11-02T01:26:39Z</time>
      </trkpt>
      <trkpt lat="47.05487" lon="-1.22111">
        <ele>34</ele>
        <time>2023-11-02T01:28:07Z</time>
      </trkpt>
      <trkpt lat="47.05518" lon="-1.22079">
        <ele>31</ele>
        <time>2023-11-02T01:28:58Z</time>
      </trkpt>
      <trkpt lat="47.05578" lon="-1.221">
        <ele>32</ele>
        <time>2023-11-02T01:30:20Z</time>
      </trkpt>
      <trkpt lat="47.05699" lon="-1.22255">
        <ele>34</ele>
        <time>2023-11-02T01:33:54Z</time>
      </trkpt>
      <trkpt lat="47.05716" lon="-1.22342">
        <ele>31</ele>
        <time>2023-11-02T01:35:17Z</time>
      </trkpt>
      <trkpt lat="47.05701" lon="-1.22435">
        <ele>33</ele>
        <time>2023-11-02T01:36:44Z</time>
      </trkpt>
      <trkpt lat="47.05731" lon="-1.22461">
        <ele>32</ele>
        <time>2023-11-02T01:37:30Z</time>
      </trkpt>
      <trkpt lat="47.05758" lon="-1.22421">
        <ele>29</ele>
        <time>2023-11-02T01:38:21Z</time>
      </trkpt>
      <trkpt lat="47.05785" lon="-1.22475">
        <ele>31</ele>
        <time>2023-11-02T01:39:22Z</time>
      </trkpt>
      <trkpt lat="47.05746" lon="-1.22508">
        <ele>33</ele>
        <time>2023-11-02T01:40:22Z</time>
      </trkpt>
      <trkpt lat="47.05753" lon="-1.22569">
        <ele>40</ele>
        <time>2023-11-02T01:41:18Z</time>
      </trkpt>
      <trkpt lat="47.05915" lon="-1.22486">
        <ele>33</ele>
        <time>2023-11-02T01:45:07Z</time>
      </trkpt>
      <trkpt lat="47.05893" lon="-1.22396">
        <ele>32</ele>
        <time>2023-11-02T01:46:34Z</time>
      </trkpt>
      <trkpt lat="47.06028" lon="-1.2236">
        <ele>37</ele>
        <time>2023-11-02T01:49:37Z</time>
      </trkpt>
      <trkpt lat="47.06074" lon="-1.22407">
        <ele>37</ele>
        <time>2023-11-02T01:50:52Z</time>
      </trkpt>
      <trkpt lat="47.06104" lon="-1.22493">
        <ele>34</ele>
        <time>2023-11-02T01:52:20Z</time>
      </trkpt>
      <trkpt lat="47.06165" lon="-1.2262">
        <ele>31</ele>
        <time>2023-11-02T01:54:41Z</time>
      </trkpt>
      <trkpt lat="47.06225" lon="-1.22666">
        <ele>36</ele>
        <time>2023-11-02T01:56:12Z</time>
      </trkpt>
      <trkpt lat="47.06256" lon="-1.22773">
        <ele>33</ele>
        <time>2023-11-02T01:57:57Z</time>
      </trkpt>
      <trkpt lat="47.06353" lon="-1.22904">
        <ele>34</ele>
        <time>2023-11-02T02:00:53Z</time>
      </trkpt>
      <trkpt lat="47.06427" lon="-1.23004">
        <ele>36</ele>
        <time>2023-11-02T02:03:07Z</time>
      </trkpt>
      <trkpt lat="47.06522" lon="-1.23052">
        <ele>35</ele>
        <time>2023-11-02T02:05:22Z</time>
      </trkpt>
      <trkpt lat="47.06599" lon="-1.22991">
        <ele>39</ele>
        <time>2023-11-02T02:07:18Z</time>
      </trkpt>
      <trkpt lat="47.06615" lon="-1.23108">
        <ele>33</ele>
        <time>2023-11-02T02:09:07Z</time>
      </trkpt>
      <trkpt lat="47.06713" lon="-1.2294">
        <ele>39</ele>
        <time>2023-11-02T02:12:28Z</time>
      </trkpt>
      <trkpt lat="47.06821" lon="-1.22854">
        <ele>45</ele>
        <time>2023-11-02T02:15:12Z</time>
      </trkpt>
      <trkpt lat="47.0686" lon="-1.22706">
        <ele>50</ele>
        <time>2023-11-02T02:17:36Z</time>
      </trkpt>
    </trkseg>
  </trk>
</gpx>